GFSNE_sfc_dewp_027.txt.gz
Dewpoint
24 26 24 22 23 23 23 23 22 18 18 18 17 19 19 20 23 22 21 28 31 33 33 33 33 34 34 35 36 36 37 37 37 38 40 40 40 40
21 21 23 22 22 23 23 22 22 21 18 19 19 19 20 19 23 22 22 29 30 31 32 32 31 31 32 33 34 35 36 37 38 39 40 40 41 41
22 22 22 22 21 21 21 21 21 20 19 19 21 22 22 22 22 23 25 24 23 29 30 30 30 31 32 33 33 34 35 36 37 38 39 39 40 40
21 22 21 18 23 21 20 21 20 20 21 20 22 22 22 23 22 25 24 22 20 24 28 29 30 31 32 32 33 33 34 34 35 36 38 38 39 39
21 21 21 21 22 20 20 21 23 22 23 22 21 23 23 24 27 27 22 21 17 24 27 29 30 31 32 32 32 32 32 32 33 33 34 34 35 36
22 22 21 21 20 22 22 24 22 22 23 23 23 25 26 28 25 20 18 20 20 19 25 28 29 29 30 30 31 30 31 31 32 32 33 33 33 35
21 20 21 24 25 25 23 24 24 23 25 26 26 26 27 21 19 19 19 21 22 25 23 22 23 23 24 28 27 28 29 31 31 32 33 34 34 35
20 19 19 23 22 25 27 27 26 26 27 28 28 26 21 20 19 21 23 23 24 23 22 21 23 22 23 23 28 29 30 31 31 32 33 34 34 35
19 20 19 17 23 21 24 26 27 29 29 27 23 21 19 20 24 25 26 25 21 22 22 23 24 22 22 21 28 29 30 31 32 33 33 33 35 36
19 19 20 20 21 22 22 27 27 28 25 20 20 20 22 24 27 30 25 24 23 23 23 23 22 21 22 23 28 29 30 31 31 32 32 33 34 35
18 19 20 20 23 26 24 27 26 21 22 24 25 27 29 28 25 22 23 23 21 21 22 22 22 23 23 23 23 27 28 30 31 32 33 33 33 34
18 19 23 21 25 26 24 23 21 19 20 23 23 23 22 20 25 22 25 25 23 21 22 23 23 24 21 22 25 24 24 28 30 31 33 33 34 34
20 18 19 24 26 27 27 21 20 22 24 23 19 18 19 20 22 24 24 26 24 22 22 24 23 22 22 21 22 24 25 26 27 28 32 33 34 35
19 19 21 25 26 25 24 23 25 25 20 18 19 20 21 23 24 25 25 25 26 25 26 26 23 23 22 21 20 22 24 26 28 29 30 32 35 37
21 23 25 25 24 21 20 23 23 18 18 19 21 22 23 25 25 25 26 26 26 25 26 25 26 26 25 23 22 23 24 26 28 29 31 33 33 33
24 24 22 22 19 18 17 17 17 18 20 22 22 22 23 23 23 24 23 23 23 22 25 26 27 28 26 26 25 25 26 25 28 30 32 32 32 32
22 20 16 13 14 14 15 17 18 19 21 22 23 23 21 22 22 22 23 23 22 21 22 24 26 27 27 27 26 26 26 27 29 30 31 30 30 32
19 15 13 15 15 15 16 17 19 21 22 23 22 22 22 21 21 22 23 22 22 22 23 24 25 26 25 26 29 28 27 27 29 29 31 30 29 31
14 16 16 17 17 18 19 20 20 21 23 23 22 21 21 22 21 21 21 22 22 22 23 24 26 25 23 21 24 28 28 28 28 29 30 30 30 30
16 17 17 17 17 19 20 21 22 21 21 21 22 22 22 22 21 21 21 22 22 23 24 24 26 26 25 25 25 27 29 29 30 29 29 30 32 33
16 16 17 17 18 20 21 21 21 20 22 22 21 21 22 22 21 21 22 24 25 24 23 24 27 30 28 30 26 25 27 29 31 31 31 31 30 30
16 16 17 18 19 21 21 21 20 20 20 21 21 22 22 23 22 23 23 24 24 24 26 27 27 27 29 27 25 27 27 29 31 32 33 35 31 27
17 17 17 18 20 21 21 20 20 20 20 21 21 22 23 22 23 24 25 26 26 28 26 26 27 27 26 27 27 27 28 28 29 29 31 34 36 36

GFSNE_sfc_dewp_030.txt.gz
Dewpoint
22 23 24 24 24 24 24 23 22 18 18 19 18 19 21 21 24 23 22 28 31 33 34 34 33 34 35 35 35 36 37 37 38 39 40 41 41 42
22 20 22 23 23 23 23 23 22 21 18 19 19 20 21 21 24 23 22 29 31 32 33 32 32 32 33 34 34 36 37 37 38 39 40 41 41 42
21 22 23 22 22 22 22 22 22 21 19 19 20 22 22 22 22 23 24 24 25 31 32 31 31 31 33 33 34 34 35 36 38 39 40 40 41 41
21 21 22 20 22 22 21 21 21 21 21 20 22 22 22 23 22 23 24 27 25 26 30 29 30 31 32 33 33 34 34 34 35 36 37 37 38 39
22 22 22 22 22 22 21 21 23 22 24 22 22 23 23 24 25 26 29 23 20 25 27 29 30 31 33 32 33 33 32 33 33 33 34 35 36 37
23 23 22 21 21 21 22 23 23 23 23 23 23 24 25 26 27 24 20 21 20 21 25 27 31 31 31 31 31 30 31 32 32 33 33 33 34 35
21 21 21 24 26 25 22 23 24 24 24 24 25 24 24 27 21 22 20 20 21 22 23 24 22 23 23 27 27 29 30 31 32 33 33 34 34 35
20 21 20 24 23 25 26 27 25 25 25 24 26 27 22 21 20 20 21 20 21 25 22 21 22 21 22 24 28 30 30 31 32 33 33 34 34 35
21 20 19 18 23 22 25 26 26 27 28 25 23 22 20 20 22 22 24 25 26 24 22 21 22 22 23 22 28 29 30 31 32 32 32 33 35 35
19 19 19 19 21 22 22 24 25 26 27 25 22 20 22 23 25 30 28 24 23 23 22 21 22 21 22 22 28 29 30 30 31 31 32 32 33 34
18 19 20 20 24 25 24 24 24 24 24 26 26 27 29 29 26 22 22 23 21 20 22 22 21 22 22 22 22 28 28 29 30 31 32 32 32 33
20 21 25 22 26 26 23 23 23 20 21 22 24 24 23 22 25 21 23 22 22 20 21 22 22 23 19 20 22 22 22 27 29 29 30 32 32 31
22 21 20 25 26 27 27 21 21 22 23 22 20 19 19 20 21 22 24 26 23 21 22 23 23 22 22 20 20 22 22 23 23 25 29 31 32 33
20 20 21 26 26 26 24 24 24 24 19 17 18 19 20 22 23 24 24 25 25 24 25 26 24 23 22 20 18 21 23 24 25 26 27 30 32 33
21 23 26 26 25 22 21 22 22 18 18 18 21 22 22 22 23 23 23 23 23 24 25 24 24 24 24 22 21 22 23 25 26 27 28 28 29 31
24 23 23 23 21 19 17 17 18 18 19 20 20 22 23 23 21 21 22 22 22 21 24 24 24 25 24 24 24 23 24 24 26 28 29 29 30 31
23 20 17 15 16 15 16 17 18 18 19 20 21 22 21 21 20 21 21 22 21 20 20 22 24 25 25 25 23 24 25 26 28 28 28 29 29 30
19 15 14 16 16 16 16 17 18 20 20 21 21 21 21 20 20 21 22 21 20 20 21 22 23 23 23 25 28 27 28 27 27 28 27 27 28 29
14 16 17 17 17 17 17 18 19 19 21 21 21 20 20 21 21 19 19 20 20 20 20 22 24 24 21 20 23 28 28 28 28 28 28 29 29 29
17 17 17 17 17 17 18 19 20 20 20 19 20 21 21 20 19 19 19 20 21 22 23 23 23 25 25 24 24 26 29 28 29 28 28 30 31 32
16 16 16 17 17 18 19 19 20 19 21 21 19 19 20 20 19 19 20 23 24 23 22 23 26 31 29 28 26 24 26 29 30 31 31 30 29 31
16 16 16 17 18 18 19 19 19 19 18 18 19 20 20 20 20 21 21 21 22 24 25 27 29 28 28 26 25 25 26 28 30 31 32 32 31 28
16 16 16 17 18 18 19 19 18 18 18 19 19 19 20 20 21 22 22 23 24 25 28 26 27 27 26 27 27 27 27 26 27 28 29 33 35 36

GFSNE_sfc_dewp_033.txt.gz
Dewpoint
23 24 24 24 24 24 24 24 21 19 18 19 18 20 21 22 25 24 23 29 32 33 33 34 35 35 35 36 36 36 37 38 40 40 41 41 42 42
23 21 22 23 23 23 23 23 23 21 18 19 19 20 21 21 25 24 23 30 30 32 33 34 33 33 34 34 34 35 36 37 38 40 41 41 42 42
21 22 22 22 22 22 22 22 21 21 19 20 21 22 22 23 23 24 24 23 24 32 33 32 32 32 32 33 34 34 35 37 37 39 40 41 41 41
21 22 22 21 22 22 22 20 21 21 21 20 22 23 22 23 23 23 24 24 26 30 31 30 30 31 32 32 34 34 34 34 36 37 38 38 38 39
22 22 22 22 22 22 21 21 22 22 23 23 22 24 23 25 25 25 26 27 22 27 28 28 30 31 33 33 33 32 32 33 33 33 34 35 36 37
24 23 22 22 21 22 21 22 22 23 23 23 23 24 25 24 25 27 22 23 22 20 24 27 30 31 31 31 31 30 31 31 33 33 34 34 35 36
22 21 22 24 26 25 22 23 23 23 23 23 24 24 24 24 22 22 21 21 21 22 22 23 25 24 24 27 27 29 30 32 32 33 34 34 35 36
22 22 21 25 23 25 26 26 25 23 22 21 25 23 22 22 21 21 21 21 21 24 24 24 23 22 22 23 28 30 30 31 32 32 33 34 34 35
21 20 19 18 24 21 25 26 26 27 27 25 24 23 23 22 23 22 24 25 26 25 23 22 22 21 22 22 28 29 30 31 31 32 31 33 34 34
19 19 19 20 21 23 23 25 25 25 25 26 25 23 22 23 26 28 25 23 22 22 22 20 21 21 22 22 28 29 30 30 31 31 31 31 32 32
20 21 22 22 25 26 24 25 23 23 26 27 27 28 29 29 26 23 22 21 19 19 21 21 21 21 22 21 22 27 27 28 29 30 30 31 31 32
21 22 26 23 26 27 24 23 22 20 21 22 23 24 23 22 25 21 22 21 20 20 20 21 21 22 19 20 21 22 21 26 28 29 30 30 31 27
22 22 21 25 27 27 27 22 21 21 22 20 18 18 19 20 21 22 23 24 22 21 22 23 23 22 22 20 21 22 22 22 22 24 28 29 30 31
20 20 21 27 26 26 23 24 24 23 17 17 18 19 20 22 22 23 23 24 24 24 24 24 22 22 21 19 18 20 22 23 24 24 25 28 31 32
21 23 26 26 24 21 22 23 22 18 17 18 20 20 21 22 23 24 23 22 21 23 24 23 24 23 22 20 19 20 22 23 25 25 26 27 27 28
24 23 23 21 20 20 18 18 17 17 19 20 20 21 22 22 21 21 20 20 20 19 22 23 23 24 22 22 23 22 22 22 24 25 27 28 28 29
23 19 16 15 16 16 16 16 17 17 19 20 20 21 20 20 20 20 19 20 19 19 19 21 22 23 23 24 22 22 22 23 25 26 27 27 28 28
16 14 15 16 16 16 16 16 17 19 19 20 20 19 19 19 19 20 21 20 18 18 19 20 21 21 21 23 27 24 25 25 26 27 28 27 27 28
15 15 16 16 16 17 17 17 17 18 20 19 19 18 18 19 20 18 18 19 18 18 19 20 23 23 20 18 22 28 27 27 27 27 27 27 27 28
17 16 16 16 16 16 17 17 18 18 18 18 19 20 19 19 18 18 19 18 19 20 22 23 23 25 24 23 25 26 29 28 28 28 28 29 30 32
15 15 16 16 16 17 17 17 18 18 20 19 17 18 19 19 18 19 19 22 23 21 20 21 24 29 29 29 25 23 25 29 30 29 30 29 28 28
15 15 16 16 16 16 17 17 17 17 17 18 18 19 19 19 19 19 20 21 21 22 23 24 27 27 27 26 23 24 25 26 28 30 31 32 30 27
15 16 16 16 16 17 17 17 17 17 17 18 18 19 19 19 20 21 22 22 23 24 26 24 25 26 25 25 25 25 25 25 26 28 30 33 34 35

GFSNE_sfc_dewp_036.txt.gz
Dewpoint
24 24 24 24 24 24 24 24 21 18 18 19 18 20 21 22 24 25 25 29 32 33 33 34 34 35 36 36 36 36 37 38 38 40 40 41 42 42
24 22 23 23 23 23 23 23 24 21 18 20 19 20 21 22 25 24 24 29 30 32 33 33 33 34 34 35 35 35 36 37 38 39 41 41 42 42
22 21 22 23 23 23 23 22 22 21 19 20 21 22 23 23 23 24 25 24 24 31 32 33 33 33 33 33 33 34 35 36 37 40 39 40 41 41
21 22 22 21 23 22 22 21 21 21 21 19 21 23 23 24 24 23 24 24 25 30 32 32 32 31 32 33 33 34 34 35 35 35 36 37 37 37
22 22 23 23 23 23 22 22 22 21 23 22 22 23 24 24 25 25 25 26 27 29 29 29 30 31 32 33 33 33 33 33 33 33 34 35 35 37
27 28 26 24 22 23 22 22 21 22 23 23 23 23 22 25 25 25 23 22 22 21 25 28 30 31 31 32 32 31 31 32 33 33 33 33 35 36
27 22 23 24 27 26 23 23 23 23 23 21 22 21 23 23 22 22 21 21 22 22 22 23 24 25 26 29 28 29 29 31 33 33 34 34 35 35
22 22 21 24 24 26 26 27 25 23 19 19 19 23 23 22 23 22 22 21 20 24 24 24 24 22 23 23 28 30 31 31 32 32 33 34 34 35
20 19 18 18 24 21 25 27 27 28 28 26 23 22 23 24 24 22 22 24 24 24 23 21 22 21 22 22 28 29 30 31 31 31 31 31 33 34
19 19 20 21 22 24 23 24 25 25 24 24 24 25 25 25 26 29 26 23 23 22 21 19 20 20 21 22 28 29 30 30 31 31 31 31 31 31
21 21 23 22 26 27 24 24 24 23 26 27 27 28 29 29 27 22 22 21 19 19 20 20 20 20 21 21 21 28 28 29 29 29 30 31 31 31
20 22 25 23 26 26 25 24 22 20 21 22 22 21 22 21 25 22 21 20 19 19 20 19 20 21 19 20 21 21 20 26 28 29 30 30 30 27
21 20 20 25 27 28 26 21 20 21 21 17 17 17 18 20 21 22 23 23 21 20 21 23 22 21 21 19 20 22 22 22 22 23 27 29 29 30
20 20 21 27 27 26 23 24 24 23 17 16 18 19 20 21 21 22 23 23 24 23 23 23 21 20 19 18 17 20 21 22 23 23 24 27 30 31
22 24 27 26 24 20 22 23 22 17 17 18 19 20 20 21 22 22 22 22 21 22 23 22 23 22 21 19 18 19 21 21 23 23 24 24 25 26
24 24 21 19 20 20 18 18 17 17 19 19 19 20 20 20 20 20 20 20 20 19 21 22 21 21 20 20 21 20 21 21 23 24 24 25 26 27
22 16 14 15 16 16 16 16 16 17 18 19 19 19 19 19 19 19 19 19 18 17 18 19 21 22 22 22 20 20 21 22 23 24 24 25 26 28
16 14 15 16 16 15 15 16 17 19 18 19 18 18 18 18 18 19 20 18 17 17 17 19 19 20 20 22 26 22 22 23 25 26 28 27 26 28
15 15 15 16 16 16 16 16 16 17 17 18 18 17 18 18 19 17 17 17 17 17 18 19 20 22 19 17 22 27 27 28 28 26 26 26 26 27
16 15 15 15 16 16 16 16 16 16 17 17 18 19 18 18 17 17 17 17 18 19 21 21 21 22 22 22 24 25 28 28 28 27 27 28 29 31
15 15 15 15 16 16 16 16 16 16 18 18 16 17 18 18 17 18 18 22 23 21 20 21 23 28 28 28 24 23 24 28 29 29 29 28 26 26
14 15 16 16 16 16 15 15 15 15 15 16 17 18 19 19 18 18 19 20 21 22 23 24 26 26 26 26 23 23 24 26 28 30 31 32 29 26
15 16 16 16 16 15 16 16 16 15 15 16 17 18 19 20 20 21 22 22 24 26 25 24 24 25 24 24 24 24 25 26 27 28 28 31 32 33

GFSNE_sfc_dewp_039.txt.gz
Dewpoint
27 27 26 25 25 25 24 23 21 17 18 18 18 20 21 22 25 25 24 29 32 33 34 35 35 35 36 36 37 37 37 38 39 39 39 41 42 43
29 24 24 25 24 24 24 24 23 21 18 20 19 20 21 22 25 25 25 30 31 32 33 33 33 34 35 35 35 36 37 36 37 39 41 41 42 42
30 28 23 24 24 23 23 24 23 22 20 20 21 21 21 22 23 24 25 25 25 31 32 33 33 34 34 34 34 35 35 36 37 38 40 40 42 41
30 28 23 22 23 23 24 23 23 22 21 19 20 22 22 23 24 24 24 24 25 29 32 33 33 32 33 33 33 33 34 35 36 37 37 37 38 38
25 23 23 23 24 25 24 23 23 21 22 22 21 23 24 24 24 25 25 25 26 29 29 30 31 31 33 33 33 33 33 33 33 33 34 34 35 36
31 31 31 31 29 26 23 24 22 22 22 22 23 23 22 24 24 24 22 23 22 22 26 28 30 31 31 32 32 32 32 33 33 34 34 34 33 34
33 32 29 28 29 28 24 24 23 23 23 22 22 21 21 23 23 23 22 22 23 23 22 23 24 24 25 29 28 29 30 32 33 33 34 34 35 35
30 25 22 23 23 26 27 28 27 24 21 18 17 21 23 23 23 23 22 22 21 23 23 23 23 22 22 23 28 30 31 32 32 33 32 33 34 34
20 19 19 20 24 22 25 27 27 28 28 25 24 23 22 23 24 23 23 24 23 24 23 21 21 20 21 21 28 29 30 31 32 32 32 32 33 33
20 20 21 22 23 24 24 25 25 25 25 24 24 24 25 25 26 29 28 25 23 22 22 19 20 19 20 21 27 29 30 30 31 31 31 31 31 32
20 21 23 23 26 26 24 24 24 24 26 27 27 28 28 28 27 22 21 21 19 19 20 19 20 20 21 21 21 28 29 29 29 30 30 30 31 31
20 21 25 23 25 26 25 24 21 20 20 22 20 19 20 20 25 21 21 19 19 18 20 16 19 21 18 21 21 21 21 26 28 29 30 30 31 27
21 20 21 26 27 28 27 20 20 21 21 17 16 17 18 19 20 21 22 22 21 20 21 23 22 21 21 19 20 21 21 21 21 22 27 28 29 29
21 21 21 27 27 26 23 23 24 23 16 16 18 18 19 20 21 21 22 22 23 23 23 24 21 19 19 17 16 19 20 21 22 22 23 26 29 30
22 25 27 24 23 20 22 22 22 17 17 17 18 19 20 20 21 20 21 21 20 21 23 22 22 21 20 18 17 18 20 21 22 22 23 23 23 24
25 22 20 19 19 19 18 17 17 17 18 19 18 19 20 19 19 19 18 19 19 18 20 21 21 20 19 19 20 18 19 19 22 23 23 24 25 26
19 15 14 14 15 15 15 16 16 16 18 18 18 18 18 18 18 18 17 17 17 17 17 19 20 21 21 21 19 19 20 20 22 22 23 23 25 26
15 14 14 15 15 15 15 15 16 18 17 18 17 17 17 16 17 18 20 18 16 16 17 18 19 19 20 21 25 20 21 22 23 24 26 25 25 28
14 14 15 15 15 16 16 16 15 16 16 16 15 15 16 17 19 16 17 17 17 17 18 19 20 21 19 16 20 24 25 27 28 27 27 26 25 26
15 14 14 15 15 15 15 15 15 15 15 15 15 17 17 16 16 17 18 18 18 19 21 22 22 23 21 21 23 24 27 28 28 27 26 27 28 30
14 14 15 15 15 16 16 15 14 14 16 17 14 15 16 18 18 19 18 22 23 21 20 21 24 28 27 27 23 22 24 27 28 28 28 27 26 26
14 15 15 16 16 15 15 14 14 14 13 14 15 16 18 19 19 19 20 20 20 21 22 24 26 26 26 24 22 23 23 25 27 30 31 31 29 26
14 15 16 16 16 15 15 15 15 14 14 14 15 17 19 19 20 21 21 21 22 24 25 24 25 26 24 24 25 24 24 25 25 26 28 31 32 32

GFSNE_sfc_dewp_042.txt.gz
Dewpoint
31 29 30 29 26 26 26 24 21 16 18 18 18 20 21 22 24 26 25 29 32 33 33 34 35 36 36 37 37 37 38 38 38 39 40 41 41 43
30 27 26 27 28 28 28 26 24 21 18 20 20 20 20 20 24 26 25 30 31 32 32 33 33 34 35 35 36 36 37 37 38 39 39 40 42 42
32 31 30 29 29 28 27 27 25 24 22 22 21 21 20 21 22 24 25 25 25 31 32 33 33 34 34 35 34 35 35 35 37 39 39 40 41 42
32 33 32 33 31 30 29 28 26 26 25 20 20 21 21 22 23 23 24 24 25 28 32 33 33 32 33 33 34 34 34 36 36 37 38 39 39 40
32 29 29 30 31 32 31 31 29 24 23 21 21 22 23 24 24 24 24 25 25 29 30 30 31 32 33 33 33 33 33 34 34 34 34 35 35 36
34 34 34 34 33 33 32 30 25 24 23 23 23 23 23 24 23 24 23 23 23 22 26 28 30 30 31 32 32 32 32 33 34 34 34 34 34 35
34 34 33 33 33 33 30 26 25 24 23 23 22 21 22 22 23 23 23 23 23 24 23 23 23 24 25 29 28 30 30 31 33 33 33 34 35 35
32 31 30 31 29 28 27 27 26 26 25 22 21 21 23 24 23 23 23 22 22 23 22 22 24 22 22 23 28 30 31 32 32 33 33 33 34 35
29 24 23 22 27 24 26 27 27 28 28 25 24 23 23 23 23 23 23 24 23 24 24 21 22 21 22 21 28 29 30 31 32 32 32 32 32 33
22 21 21 22 23 24 24 25 25 25 25 25 25 25 25 25 25 26 26 24 22 22 22 20 20 19 20 21 27 29 30 30 31 31 32 31 31 32
21 21 23 23 25 25 24 24 25 24 24 26 26 27 28 27 25 22 21 21 18 18 20 19 19 19 20 20 21 27 28 29 29 30 30 31 31 32
20 21 24 22 25 26 25 24 20 19 20 22 20 19 20 19 25 21 20 18 18 18 20 18 17 20 18 21 21 21 20 25 27 29 30 30 30 28
21 20 21 26 27 28 27 20 20 21 20 16 16 17 19 19 20 21 22 19 20 19 20 22 21 20 20 19 19 20 21 20 20 21 26 28 29 29
21 21 21 27 26 25 22 23 24 22 16 16 18 18 19 20 20 21 21 21 22 22 22 23 20 18 18 17 16 18 20 21 22 22 22 25 28 30
23 26 24 23 22 19 21 22 21 17 17 17 18 19 19 19 20 19 19 19 19 20 22 21 21 20 20 17 16 17 19 20 22 21 22 22 23 24
25 20 19 18 18 18 17 16 16 17 18 19 18 18 19 14 18 18 17 17 17 17 20 21 20 20 18 19 19 17 18 18 21 22 22 23 24 25
18 14 14 14 14 14 15 16 16 16 18 18 17 17 17 17 17 17 17 17 16 16 17 19 20 21 21 20 18 18 19 19 21 21 22 23 24 25
14 13 13 14 14 14 15 15 16 17 16 17 16 15 15 15 15 18 19 17 16 16 16 18 18 19 20 21 25 20 21 21 22 24 25 25 25 27
13 13 14 14 15 15 15 15 14 16 14 14 13 13 15 15 18 17 16 17 17 18 18 19 20 21 18 16 20 25 25 26 26 25 26 25 25 26
14 13 14 15 15 15 15 14 14 14 13 13 13 14 16 16 16 18 18 18 18 19 20 21 21 21 22 22 23 24 27 27 27 26 26 27 28 30
14 14 15 15 15 15 15 14 13 13 15 16 13 12 14 17 17 18 19 23 24 22 20 20 22 27 27 27 23 22 24 27 29 28 28 27 25 25
14 14 15 16 16 15 14 13 12 12 12 12 13 14 15 17 18 19 20 20 21 21 21 22 25 27 27 26 23 23 24 25 27 29 30 30 28 25
14 14 15 15 15 15 14 13 13 13 14 15 15 15 16 17 20 21 22 23 22 22 23 25 25 26 26 27 27 25 24 24 25 25 27 30 31 32

GFSNE_sfc_dewp_045.txt.gz
Dewpoint
37 35 31 32 33 33 30 28 28 22 20 20 21 22 22 23 23 23 24 28 32 33 33 34 34 35 36 37 37 38 38 38 39 39 40 40 41 43
33 30 29 29 30 32 32 30 29 23 22 22 22 22 22 21 24 25 25 30 31 32 33 33 33 34 35 35 36 37 37 38 38 40 41 40 42 43
31 30 31 32 31 31 32 32 32 31 29 30 28 28 29 27 25 25 26 25 25 31 32 32 33 33 34 34 35 35 36 36 37 38 38 40 42 41
34 32 32 33 34 34 33 31 31 31 30 29 29 27 25 26 25 24 23 23 25 28 32 32 32 32 33 34 34 34 34 35 36 37 39 39 40 40
34 33 32 32 32 33 33 33 33 35 32 29 26 26 25 24 24 25 25 25 24 28 30 30 31 32 33 33 33 33 33 34 34 34 34 35 36 37
34 34 34 34 34 33 33 34 34 31 29 28 27 26 25 25 24 24 23 24 22 22 26 28 31 31 31 32 31 31 32 33 34 34 34 34 34 36
35 34 33 34 34 34 33 32 31 30 29 28 26 25 25 23 23 24 23 22 23 25 24 23 24 24 24 28 29 30 30 32 33 34 34 34 35 35
32 32 32 33 33 33 33 33 31 29 29 28 27 24 23 24 24 23 24 23 22 23 23 23 23 22 23 23 27 29 31 32 32 33 33 34 34 35
31 30 29 30 31 29 28 25 27 28 27 26 25 24 23 23 28 27 26 24 24 24 23 22 21 21 22 21 27 29 30 31 32 32 32 32 32 33
26 26 26 25 25 25 24 27 26 25 25 25 25 24 24 25 26 28 27 24 22 21 22 21 21 20 20 21 27 28 29 30 31 31 31 31 31 32
24 24 24 23 24 25 24 27 26 25 23 25 25 27 27 27 25 23 24 23 20 19 20 20 20 21 21 22 21 26 28 28 29 29 30 31 31 31
21 21 23 22 25 26 27 27 22 20 21 23 21 19 19 19 24 21 23 23 21 20 21 21 21 21 21 20 23 22 20 25 27 28 29 30 30 28
20 20 20 25 27 27 25 20 20 21 20 18 16 16 18 20 20 21 22 24 21 21 22 24 23 22 22 21 21 22 22 22 22 23 26 27 28 28
21 21 23 26 25 24 21 22 23 22 16 15 18 19 21 22 23 23 23 23 23 24 25 25 22 22 21 20 19 21 24 25 26 26 27 27 28 29
24 24 23 22 20 18 19 20 20 16 16 18 20 21 22 23 23 23 23 24 23 23 25 24 24 23 23 21 20 21 22 24 26 26 26 26 27 26
22 19 18 17 18 17 16 16 16 17 19 19 19 20 21 22 22 22 22 22 21 22 25 25 24 24 22 22 22 20 23 22 25 26 27 27 26 27
20 13 12 12 13 14 15 16 17 17 18 19 19 19 19 20 20 21 21 21 20 21 22 24 25 25 24 23 21 22 22 23 25 26 26 25 26 28
13 11 13 14 14 15 16 16 16 18 18 18 18 18 18 18 19 21 23 22 21 21 22 24 24 23 23 25 26 23 24 25 27 28 28 26 26 28
12 14 14 15 16 17 17 18 18 18 18 18 17 17 17 18 20 20 21 22 21 23 24 24 24 24 22 19 23 25 27 29 28 26 28 27 27 28
15 15 16 16 16 17 18 18 18 18 17 17 17 17 17 18 18 19 21 21 22 23 24 26 26 25 24 23 24 26 28 29 28 28 28 29 29 30
14 15 16 16 17 18 18 18 17 17 18 20 17 17 17 17 18 20 21 24 24 24 23 23 26 28 28 28 26 24 27 29 29 30 29 29 27 27
14 15 16 17 17 18 18 17 17 17 17 17 17 18 18 18 19 20 21 22 24 24 24 26 27 28 28 27 25 26 26 27 28 29 30 31 29 26
14 15 16 17 17 17 17 17 17 17 17 18 19 20 19 19 20 21 22 23 24 24 25 25 28 27 27 27 26 26 26 25 26 26 27 29 31 31

GFSNE_sfc_dewp_051.txt.gz
Dewpoint
55 55 51 47 44 42 41 42 42 37 29 29 28 27 28 28 29 27 31 33 34 37 37 36 36 36 36 37 38 38 39 40 40 40 41 41 42 42
53 52 46 39 39 40 38 37 39 38 35 33 32 32 31 30 34 36 35 37 37 37 36 34 34 36 36 36 37 37 38 38 39 40 40 41 41 41
47 43 37 37 37 37 37 38 37 37 36 32 33 33 34 35 35 35 35 33 31 33 33 33 33 34 35 36 36 36 36 37 37 38 39 39 39 40
38 37 36 36 36 36 37 36 36 38 36 34 33 32 33 34 34 34 33 29 27 28 31 32 33 34 34 34 34 35 35 35 36 36 37 37 37 38
36 35 35 35 35 36 36 35 35 35 34 33 32 34 34 34 32 30 29 27 24 28 30 30 29 30 32 33 34 35 35 35 35 35 35 36 36 37
36 36 36 36 35 34 34 33 34 33 34 34 34 33 33 32 30 27 25 27 25 22 24 27 29 30 31 32 32 32 32 33 34 34 34 34 34 35
35 35 36 36 37 36 35 35 35 34 34 33 31 30 29 28 26 25 24 24 25 25 24 24 26 26 26 29 29 29 30 31 32 33 34 34 34 34
33 33 34 35 37 38 38 37 35 33 32 32 31 27 24 24 24 24 28 24 23 26 24 24 26 24 25 25 28 29 30 31 32 33 33 34 34 33
33 33 32 31 31 29 31 30 29 30 29 29 26 24 23 25 29 28 26 25 25 24 25 23 24 23 25 22 28 29 30 31 31 32 32 33 32 32
31 29 27 26 25 25 24 27 27 27 26 24 26 25 26 25 25 29 28 27 25 25 25 23 24 23 24 25 29 30 30 31 31 32 32 32 32 32
26 25 23 21 22 24 26 29 26 25 25 26 25 26 27 27 27 26 25 24 24 23 25 24 24 25 25 25 25 29 29 29 30 31 31 32 32 32
20 18 22 24 26 27 27 26 25 22 22 23 22 22 22 22 23 23 25 24 24 24 26 24 25 25 24 26 27 26 25 29 30 30 31 31 31 27
19 19 21 26 27 27 26 24 22 23 22 21 20 18 19 21 23 24 25 26 24 24 25 27 24 25 24 23 25 26 26 26 26 27 30 30 30 30
20 20 23 25 25 24 22 20 22 23 20 16 19 22 24 26 27 27 27 27 27 26 27 28 26 24 23 21 21 23 24 25 26 26 28 30 31 31
23 24 23 21 19 18 15 20 21 19 18 20 23 26 26 26 27 26 27 28 27 28 28 26 26 25 24 22 21 22 22 23 25 25 27 28 28 29
23 24 18 17 17 17 17 16 18 18 20 22 23 24 25 25 24 25 25 25 25 25 27 28 29 28 25 24 24 22 23 22 24 25 26 27 28 28
22 16 11 10 13 13 16 18 19 19 21 23 23 22 22 23 23 24 25 25 24 23 24 26 27 28 29 27 24 24 24 25 26 26 27 26 27 29
17 9 11 14 15 16 17 18 20 22 22 23 22 22 22 22 22 22 23 24 23 23 24 25 26 25 25 26 28 26 26 26 27 28 28 27 27 29
12 14 16 17 19 20 21 22 22 22 25 23 23 22 22 22 21 20 21 23 22 24 25 25 25 25 23 21 23 28 25 25 25 25 26 27 27 28
15 17 18 19 20 21 21 23 22 22 23 23 22 23 23 23 22 20 21 21 22 22 24 25 26 25 25 24 25 26 29 26 25 25 26 28 29 31
15 16 17 19 21 22 21 23 22 21 22 22 21 21 22 22 22 22 21 22 23 23 22 23 25 28 28 27 25 24 25 29 29 27 27 27 26 27
15 16 17 19 20 22 21 22 21 21 22 21 22 22 23 23 22 22 22 21 21 21 22 24 25 26 27 26 25 25 25 26 29 31 31 30 28 25
17 17 18 19 21 21 22 22 21 21 22 22 22 23 23 22 23 23 23 22 22 22 22 23 24 26 27 27 28 26 26 26 26 26 27 30 31 32

GFSNE_sfc_dewp_054.txt.gz
Dewpoint
57 56 55 49 44 45 45 45 43 39 37 34 33 34 35 36 39 35 34 35 33 36 38 40 41 40 40 38 38 39 39 40 40 41 41 41 42 43
54 54 50 44 43 43 42 41 42 42 36 34 34 35 36 36 38 37 36 37 37 39 40 41 40 37 36 37 37 38 38 39 39 40 40 40 41 41
49 47 42 41 39 39 40 39 39 39 36 33 34 34 34 35 36 36 36 36 36 39 39 38 35 34 35 36 36 37 37 37 38 38 38 39 39 39
40 39 38 38 38 39 40 38 38 38 37 34 33 33 33 34 35 35 35 35 34 33 33 33 32 34 35 35 34 34 35 36 36 37 37 38 38 38
38 38 37 36 36 37 36 35 35 35 35 34 32 33 34 34 33 34 33 31 28 30 31 30 30 30 31 32 34 35 35 35 35 36 36 36 36 37
37 36 37 36 36 35 34 34 34 33 34 33 33 34 34 33 31 29 28 28 26 23 25 27 29 30 30 31 32 32 32 32 33 34 34 34 35 35
36 36 36 37 37 36 35 34 35 33 33 31 31 31 31 30 28 28 26 24 25 25 24 24 24 25 26 30 30 29 30 31 32 33 34 34 34 35
33 33 35 37 37 38 38 37 36 33 32 32 30 27 24 23 23 25 25 23 21 25 24 23 25 25 26 26 29 30 31 31 32 33 33 33 33 33
33 33 33 32 31 31 32 31 29 30 30 29 27 25 23 24 25 24 23 23 23 25 24 24 24 24 26 24 29 30 31 32 33 33 33 33 33 33
32 30 29 27 27 27 25 26 25 26 26 25 25 25 25 25 25 24 22 24 25 25 25 22 23 23 24 25 30 30 31 32 32 31 32 32 32 32
26 24 22 21 23 25 26 27 25 24 27 26 25 25 25 27 27 25 21 19 20 23 24 23 23 23 24 24 25 29 29 29 30 31 32 32 32 32
19 21 24 25 27 28 26 24 22 21 21 21 20 22 22 22 23 23 22 13 15 20 24 18 20 21 20 24 24 25 25 29 29 30 30 31 31 28
19 19 22 26 27 26 26 23 22 22 22 21 20 18 18 20 21 22 23 17 13 23 24 26 15 21 24 23 23 23 24 24 24 25 28 29 30 30
21 23 25 25 24 23 21 21 22 22 21 17 17 20 21 22 24 27 27 27 28 27 24 28 25 24 23 21 21 22 22 24 24 24 25 27 30 31
23 23 24 21 20 18 19 20 21 19 18 19 20 20 24 27 27 26 26 27 28 28 29 28 27 26 25 23 22 23 23 24 25 24 23 24 25 26
24 23 21 17 15 16 16 16 18 18 19 20 19 20 20 21 25 26 25 26 25 25 28 28 27 27 25 26 25 23 24 23 25 25 25 26 26 26
21 19 11 10 13 14 15 17 18 19 20 20 19 22 22 23 23 25 24 24 23 22 23 26 29 29 28 27 25 24 24 24 26 26 26 26 26 27
18 14 11 15 17 17 19 19 21 22 22 22 23 21 21 22 22 23 23 23 21 21 22 23 26 26 26 26 28 25 25 25 26 26 27 26 26 27
14 15 16 17 18 20 19 19 21 21 24 23 22 22 23 22 21 21 21 21 21 21 23 25 25 24 22 20 23 28 25 25 25 25 26 25 25 26
17 16 16 18 18 17 19 21 22 22 23 23 22 22 22 22 21 21 21 21 20 20 21 23 24 25 23 22 24 25 28 26 25 24 24 26 27 30
16 16 17 17 17 16 20 22 23 23 22 22 22 22 22 22 21 20 21 22 23 22 20 20 21 26 26 26 23 22 23 28 28 26 26 26 26 26
16 16 16 16 15 11 13 20 21 21 21 21 21 22 22 22 21 20 20 20 20 20 20 21 23 24 25 24 22 22 23 25 28 30 31 30 27 25
16 17 16 14 12 12 11 13 15 18 18 19 20 20 20 20 21 21 21 21 21 21 21 21 22 23 23 23 24 24 25 26 26 26 27 30 31 31

GFSNE_sfc_dewp_060.txt.gz
Dewpoint
56 56 56 56 53 53 52 50 48 44 40 39 38 39 40 44 46 45 45 47 47 47 47 47 47 47 46 46 45 46 46 45 44 43 42 42 42 43
51 52 50 47 46 45 45 45 46 45 42 38 37 37 39 41 44 41 42 45 47 47 46 45 45 45 44 44 45 45 44 42 42 41 41 41 41 41
44 43 42 42 42 42 43 43 43 43 40 36 36 36 37 38 40 39 41 39 40 43 44 44 43 43 43 44 42 40 40 39 39 39 39 40 40 40
41 40 39 40 40 41 41 40 40 39 38 36 34 33 33 36 36 36 37 36 36 37 40 41 42 43 40 38 37 37 36 36 36 37 38 38 38 39
37 38 38 38 37 37 37 36 36 37 36 35 33 34 33 34 34 35 35 35 35 38 40 39 38 37 35 34 33 33 34 35 35 35 36 36 37 37
37 37 36 36 36 35 35 35 35 35 35 34 33 33 34 34 34 33 33 34 33 29 30 28 29 30 31 31 32 32 32 33 34 34 34 35 35 35
36 37 38 39 39 37 35 35 34 34 33 33 32 33 33 32 31 32 29 26 24 25 24 24 24 24 25 29 29 30 31 31 32 34 34 35 35 35
33 33 33 34 34 39 38 37 36 33 32 32 31 29 27 25 24 25 23 22 19 24 24 23 24 24 24 25 30 31 32 33 33 33 34 35 34 34
30 28 29 30 30 29 29 29 29 30 31 29 27 25 22 24 21 21 22 20 20 22 24 22 24 23 25 25 30 30 31 32 33 33 33 34 34 34
23 23 23 22 25 26 26 25 25 25 25 25 25 24 24 24 24 22 21 21 23 24 24 17 23 23 23 24 29 30 31 31 31 31 32 32 33 33
22 23 24 24 28 31 25 24 24 23 23 27 26 26 25 27 27 24 20 16 18 22 24 22 21 22 23 23 24 28 28 29 29 30 31 31 32 32
19 19 27 26 28 27 25 23 22 22 22 23 21 21 21 20 23 23 21 10 11 14 22 17 18 20 16 22 23 23 23 27 28 29 29 30 30 28
20 22 24 28 27 25 24 20 21 22 22 21 19 17 19 21 24 23 23 12 6 11 23 24 22 25 24 20 22 22 22 24 24 24 28 29 29 29
22 22 23 26 23 22 20 21 21 23 19 18 18 19 20 21 22 25 26 25 26 26 28 27 24 24 23 22 21 21 20 22 23 24 24 27 30 30
22 24 25 24 23 18 20 20 21 17 17 19 19 18 18 16 16 17 22 28 27 28 28 28 27 26 25 23 22 22 23 19 22 23 23 23 23 24
24 21 19 17 17 17 16 15 17 17 18 18 18 19 18 18 24 25 24 24 23 17 22 28 28 27 25 25 25 23 23 22 18 21 22 24 25 26
23 17 13 12 15 15 18 19 20 20 19 19 16 19 21 22 22 24 24 23 20 14 15 17 23 25 26 26 23 23 23 23 24 24 23 24 25 26
20 15 13 16 16 17 18 19 19 20 21 24 22 23 22 22 22 23 23 21 19 17 17 14 12 15 20 22 26 23 24 23 25 25 25 24 24 26
14 15 15 15 16 17 16 14 13 19 24 23 23 22 22 22 21 19 18 16 18 18 18 16 8 15 16 14 19 23 22 23 23 23 24 24 23 24
16 15 14 15 16 15 13 10 11 15 18 21 22 22 22 21 20 19 18 15 17 17 17 17 15 17 17 16 18 20 24 22 22 22 22 23 25 27
17 16 16 15 15 13 13 9 6 8 11 12 13 18 19 16 18 19 18 21 21 21 18 17 19 23 24 24 20 18 20 23 24 23 23 23 23 23
17 16 16 15 14 10 8 6 4 7 8 10 12 10 12 14 17 17 17 17 17 18 18 19 21 21 19 19 17 17 18 20 23 25 26 26 24 22
15 15 15 13 11 8 5 5 5 8 8 9 11 13 13 14 16 16 17 18 18 18 18 18 19 21 20 20 20 20 20 20 21 21 22 25 28 29

GFSNE_sfc_dewp_063.txt.gz
Dewpoint
52 52 53 52 52 52 52 52 50 44 42 41 38 38 39 43 46 47 47 50 52 51 51 51 50 50 49 48 47 47 48 47 48 48 48 46 46 45
46 46 45 45 45 45 45 46 47 46 43 40 36 38 39 43 45 43 45 48 50 50 49 49 49 47 46 45 45 45 46 47 46 46 45 45 44 43
42 42 41 42 41 42 42 42 43 43 40 38 36 36 37 39 39 40 41 41 41 45 46 45 45 44 45 44 44 45 44 42 43 42 41 41 41 41
39 39 39 39 39 40 40 39 39 39 38 37 34 34 34 36 37 37 38 39 38 39 40 42 42 42 42 44 43 41 39 39 38 37 37 38 39 39
37 37 37 37 37 37 37 36 36 37 36 35 33 34 34 35 35 35 35 36 36 38 39 40 41 41 41 40 38 36 35 35 35 36 36 36 37 38
38 38 37 36 36 34 34 34 35 34 34 34 33 33 34 34 35 34 34 36 35 35 34 32 31 30 32 33 33 33 33 34 34 35 35 35 35 36
35 35 36 39 39 38 35 34 35 34 34 33 33 33 33 32 32 33 31 26 25 25 24 24 24 24 24 28 29 30 31 32 32 33 34 35 34 35
30 30 31 31 31 34 33 34 34 32 30 27 25 26 24 24 24 25 23 21 19 24 23 23 24 23 24 25 29 31 31 32 33 34 34 35 34 35
23 24 25 26 27 25 29 30 29 30 31 26 24 23 22 23 19 20 22 19 19 22 24 22 23 22 24 24 29 30 31 32 33 33 34 34 34 34
21 22 23 25 27 27 25 25 25 23 25 24 24 24 24 24 24 21 19 21 23 24 24 16 22 23 23 24 29 30 31 32 33 32 32 32 33 33
20 20 25 25 29 29 25 24 23 23 24 27 27 27 27 27 27 24 20 17 18 21 24 22 21 22 23 23 24 29 30 28 29 30 31 32 32 32
20 20 27 27 27 27 24 22 20 21 22 23 21 21 20 20 24 25 21 9 11 13 21 17 18 19 16 21 22 23 23 26 28 29 30 30 31 28
21 22 23 27 26 25 23 20 20 21 22 20 18 17 19 21 24 23 22 11 5 9 22 21 18 25 23 20 21 22 22 23 23 24 28 29 30 30
21 21 23 27 25 24 20 21 21 22 17 17 18 19 20 20 21 23 26 25 25 25 26 27 24 23 23 22 21 20 19 21 22 23 24 27 29 31
23 24 24 21 20 18 20 20 20 17 17 18 18 17 17 15 15 16 20 27 27 28 29 28 27 26 25 22 21 21 23 19 22 22 22 22 23 23
24 21 19 16 18 18 17 18 17 18 18 18 17 18 17 17 23 25 24 24 23 15 20 17 23 26 24 25 24 22 22 21 17 18 19 22 24 25
23 18 13 13 15 16 17 19 20 20 19 18 16 20 23 23 23 24 23 23 21 11 15 15 21 21 22 23 21 21 21 23 24 24 24 24 25 25
19 16 14 15 15 15 16 17 19 19 20 22 23 23 23 22 22 23 23 22 18 17 14 12 9 11 16 19 25 22 23 23 23 25 25 24 23 25
15 15 15 15 15 16 16 13 11 16 12 14 16 22 22 22 20 21 20 14 16 16 16 13 4 11 15 13 18 22 21 21 22 22 23 23 22 23
16 15 14 15 15 15 14 10 9 11 8 10 10 11 19 20 20 18 16 17 16 15 15 15 13 15 15 14 16 19 23 20 20 20 20 22 24 26
17 16 16 15 15 14 13 9 5 5 5 2 4 9 11 11 13 16 16 20 19 18 16 16 19 23 23 22 18 17 20 23 23 21 21 21 21 22
17 16 16 15 14 10 8 6 3 5 5 5 6 7 9 8 13 14 15 15 15 15 16 17 20 21 21 18 16 16 17 20 22 24 24 24 23 20
15 15 14 13 11 9 6 6 8 7 6 6 5 8 9 10 13 15 16 16 16 16 16 17 18 20 19 19 20 19 18 19 20 20 21 25 25 27

GFSNE_sfc_dewp_069.txt.gz
Dewpoint
50 50 50 48 48 48 49 51 49 45 45 46 43 41 42 44 46 45 46 48 49 49 50 53 52 54 54 54 53 53 52 50 49 49 49 50 50 50
46 46 45 45 45 46 47 47 48 48 46 43 40 39 40 42 43 43 44 45 47 51 51 51 50 49 49 50 51 50 49 48 48 49 49 50 50 48
42 42 41 42 42 43 44 43 42 43 44 40 38 37 38 40 40 41 41 40 41 46 48 48 48 48 48 47 47 46 46 46 46 46 46 46 45 45
39 39 39 39 39 39 39 38 39 39 41 40 37 37 37 38 38 38 38 37 38 41 44 44 44 45 44 44 44 43 45 44 44 44 44 43 43 43
37 37 37 37 37 37 36 36 37 37 39 39 37 37 37 36 36 37 36 37 37 39 40 40 40 41 41 41 41 41 41 42 41 39 38 39 39 40
37 37 37 36 36 36 36 36 36 36 36 37 36 36 36 35 35 34 34 33 31 28 29 32 33 34 34 34 34 34 34 34 36 36 36 36 37 37
33 32 34 36 36 36 34 33 32 31 33 34 33 32 30 29 29 28 28 27 26 26 25 25 25 25 26 26 26 27 29 32 33 34 35 35 34 35
29 29 30 28 29 31 31 31 31 30 29 30 29 25 24 24 25 25 26 24 24 25 23 22 24 22 22 22 25 28 29 30 30 31 32 34 34 35
27 30 29 29 27 25 27 29 29 30 29 25 22 23 23 24 26 27 25 24 23 23 24 21 22 19 22 23 28 29 31 32 32 33 34 34 34 34
27 26 26 27 28 25 24 24 24 25 28 25 26 26 26 26 26 28 27 25 24 24 24 22 22 21 23 24 28 30 31 32 33 33 34 33 33 33
21 25 26 26 28 29 24 24 18 19 24 27 27 26 26 26 26 27 26 25 21 20 23 23 23 23 24 23 23 29 31 31 30 31 32 32 32 32
21 21 27 27 26 25 23 20 17 19 23 23 19 17 19 22 26 26 26 25 24 23 24 25 24 24 25 23 26 24 24 26 27 29 29 30 31 29
20 20 22 27 25 26 25 18 20 22 22 17 16 19 22 24 25 25 23 26 26 25 24 27 26 24 24 23 24 25 25 24 23 24 26 28 29 29
19 21 23 23 21 21 19 21 24 19 16 16 19 20 22 24 25 25 25 27 25 26 27 29 26 25 24 22 22 24 25 26 27 26 27 27 28 29
22 24 24 21 19 18 20 21 19 17 17 19 21 23 24 25 24 25 26 26 27 27 29 28 27 26 25 23 22 23 24 26 28 28 28 27 27 26
24 24 22 18 17 17 17 18 19 19 20 21 22 22 24 24 23 24 24 24 23 24 26 25 24 23 23 23 23 22 24 24 26 26 26 26 26 26
24 21 17 13 13 12 14 15 17 19 21 21 22 22 22 22 22 23 24 23 22 22 23 23 23 23 23 23 22 22 23 23 25 26 25 25 26 27
23 20 17 14 14 12 12 13 15 17 18 20 21 22 22 22 22 22 23 23 21 21 21 21 20 20 20 22 25 23 23 23 25 25 25 24 24 26
22 21 19 18 17 16 16 17 17 17 19 19 19 20 21 21 21 21 21 21 20 19 20 20 19 18 17 16 19 25 25 24 24 24 24 24 25 26
22 21 20 19 18 18 18 18 18 18 17 17 18 17 17 18 19 19 19 19 18 18 19 20 19 19 17 18 19 21 22 25 24 24 24 25 25 26
19 18 18 18 19 19 19 18 18 17 17 16 16 16 16 16 16 16 16 18 19 19 19 19 22 22 23 23 19 18 21 22 24 25 24 23 21 21
18 18 18 18 19 19 18 17 16 16 16 16 15 15 14 14 13 14 14 16 17 17 19 21 21 20 19 18 18 19 19 20 22 23 24 24 24 21
18 18 19 18 18 18 16 16 14 15 15 14 14 14 13 13 14 15 16 16 17 17 17 18 18 19 19 18 19 19 20 20 21 22 23 24 25 26

GFSNE_sfc_dewp_072.txt.gz
Dewpoint
51 51 50 49 50 50 51 52 50 46 44 47 47 44 44 45 44 45 45 47 48 51 50 52 51 52 54 57 57 56 54 53 52 52 51 51 51 51
48 48 48 48 48 48 49 49 49 48 46 46 42 41 41 42 42 43 43 44 45 48 51 50 50 50 50 51 53 53 51 50 50 49 49 50 50 49
45 44 44 44 45 45 46 46 46 45 46 41 40 39 41 42 41 42 41 41 42 45 46 47 48 48 48 48 48 48 48 48 47 47 47 47 47 47
41 41 41 41 42 41 42 41 41 41 43 43 40 40 40 40 40 40 39 38 39 41 43 44 45 44 44 45 46 45 46 45 45 45 45 45 46 45
39 39 38 38 39 39 39 40 41 40 42 42 39 39 39 38 38 38 37 38 36 34 37 38 39 40 41 42 42 42 41 41 42 42 41 40 40 41
38 38 37 37 38 38 38 37 37 39 39 39 38 37 36 36 35 34 35 33 30 27 28 30 32 32 34 35 35 35 36 35 36 37 38 38 37 37
35 35 36 35 36 35 35 34 33 33 35 36 35 34 32 30 29 28 28 27 28 26 26 26 26 26 27 26 26 26 28 31 34 35 37 37 37 36
32 32 30 28 29 32 31 32 31 29 29 30 29 24 23 24 24 24 26 23 25 26 23 21 22 21 21 22 23 27 28 29 30 31 32 33 33 34
32 31 29 28 26 23 25 27 30 30 29 24 22 21 21 23 29 28 25 25 23 22 22 20 19 16 21 20 26 29 29 30 32 32 32 32 34 35
29 26 26 26 29 26 23 22 22 26 28 25 26 26 27 28 27 29 28 25 23 22 23 23 21 21 24 24 25 28 30 31 32 33 34 34 33 34
24 25 25 25 28 29 24 24 15 18 23 26 26 25 26 26 26 25 26 25 22 20 23 24 25 25 25 24 24 29 31 32 31 32 33 33 33 33
18 19 27 27 27 25 24 19 15 19 22 22 17 16 18 22 24 24 25 27 26 26 25 26 26 25 27 26 27 26 25 27 29 30 31 31 32 31
18 17 20 27 24 25 26 19 20 22 21 18 14 17 20 22 24 25 25 30 28 27 25 27 26 25 25 25 26 27 27 26 25 25 27 29 30 30
16 17 22 24 21 21 20 20 24 22 16 14 17 19 21 24 26 27 26 27 27 28 27 30 26 26 25 23 23 27 28 28 29 28 29 29 30 30
20 22 25 22 19 18 19 21 22 16 15 17 20 24 26 28 28 28 28 29 29 29 30 30 28 27 26 24 23 24 25 28 30 28 29 29 29 29
24 26 23 22 19 18 15 15 16 16 18 20 22 23 25 26 25 25 25 24 24 25 31 28 27 27 25 24 24 23 25 25 29 29 30 29 28 27
24 23 21 16 13 11 11 12 14 15 18 20 22 23 23 23 24 25 24 24 23 23 24 26 26 26 26 26 24 24 24 26 30 30 27 26 28 29
26 23 21 19 16 13 11 11 12 16 17 20 21 22 23 23 23 24 24 23 23 23 23 24 23 22 22 24 26 25 25 26 28 28 26 25 25 27
22 22 22 21 20 18 18 19 20 18 22 22 22 22 22 22 22 22 22 22 21 22 23 23 23 21 19 19 22 27 26 26 27 26 27 27 27 28
23 23 23 21 19 19 20 22 22 21 22 22 22 22 22 21 21 21 21 21 20 20 21 22 22 22 20 20 22 24 24 26 26 26 27 27 28 27
23 23 21 20 19 21 22 23 22 22 22 22 21 21 21 21 20 20 19 19 20 21 21 22 25 25 27 25 21 19 23 25 25 25 26 25 22 22
23 21 20 20 21 22 23 23 22 22 21 21 21 21 21 20 19 19 19 20 20 21 22 23 24 23 22 20 19 20 21 23 24 24 25 25 24 21
21 19 20 22 23 23 22 22 21 21 21 21 21 21 20 19 19 19 20 20 20 20 20 20 21 22 21 20 20 19 21 22 22 23 24 25 26 27

GFSNE_sfc_dewp_078.txt.gz
Dewpoint
52 51 50 50 50 51 51 52 51 47 44 43 43 42 42 44 44 44 44 46 47 49 50 50 49 49 52 54 54 56 56 58 58 58 58 57 56 56
48 48 47 48 48 48 48 48 48 47 44 42 42 39 41 43 43 42 42 43 45 47 48 48 48 48 48 51 53 53 54 56 58 58 57 56 54 52
45 44 45 46 46 45 46 46 45 45 43 40 41 40 40 41 40 41 41 39 40 42 44 45 46 47 47 47 49 50 52 53 53 54 54 54 53 52
42 42 42 43 41 42 41 40 39 39 42 41 40 39 38 39 39 39 38 38 36 35 39 42 43 44 45 44 46 47 47 47 48 49 49 49 49 50
39 39 39 39 38 38 38 40 41 41 41 41 38 39 39 37 34 35 36 35 32 33 32 34 36 39 41 41 42 42 42 44 45 45 45 45 45 44
39 38 37 37 37 36 36 35 35 36 36 38 37 36 36 34 33 29 28 29 29 26 29 30 31 32 32 34 34 35 36 38 40 41 40 39 38 38
35 34 35 35 35 35 32 31 31 30 30 30 30 30 27 25 24 26 25 25 27 26 25 24 25 25 27 31 31 31 32 32 33 35 37 37 37 37
32 30 29 30 30 30 31 32 31 28 27 25 23 21 21 22 26 26 23 24 21 25 21 21 22 20 22 23 27 30 31 30 30 31 32 33 35 36
30 29 28 27 27 25 25 28 30 30 28 25 23 22 23 25 25 25 25 23 22 23 22 20 22 23 25 25 29 30 30 31 31 31 31 31 31 32
28 27 27 29 29 27 24 23 21 27 28 27 26 26 26 27 26 26 24 24 25 24 23 19 25 24 25 26 29 29 33 32 32 32 32 33 33 34
25 27 26 27 30 28 26 24 17 21 25 25 24 23 22 22 24 25 23 22 21 22 25 23 24 23 25 26 26 29 29 29 30 32 33 34 33 32
19 25 27 28 28 27 26 22 17 20 22 22 19 23 21 22 24 22 23 15 18 20 24 19 21 22 17 25 26 26 27 30 30 30 29 31 33 31
19 18 23 25 24 24 26 23 20 24 22 20 16 16 19 22 24 25 26 19 19 22 27 21 13 19 25 23 22 24 24 27 27 28 30 31 30 30
18 17 25 25 22 21 21 21 23 25 21 15 17 20 22 23 23 25 26 25 24 27 28 28 23 20 19 16 19 22 21 24 22 24 28 29 30 31
21 22 28 25 22 21 21 20 22 22 17 19 21 22 22 21 20 21 23 28 28 28 28 26 26 25 25 23 22 23 23 22 25 20 23 27 27 27
26 25 26 26 25 22 19 18 20 17 18 21 22 23 22 19 19 18 14 16 19 23 24 29 26 16 14 23 23 22 23 20 18 20 24 25 27 27
26 24 24 24 22 17 16 16 16 16 20 21 21 21 23 22 21 17 14 11 11 11 14 19 25 22 23 22 22 21 21 20 22 23 24 27 28 27
25 23 23 23 22 18 16 14 15 17 20 21 20 20 18 16 15 15 13 11 10 12 12 13 13 14 16 20 25 21 18 20 20 22 28 26 25 26
25 26 25 25 24 23 22 22 20 21 17 16 16 15 15 14 19 12 11 12 12 11 11 11 9 14 19 16 19 23 21 14 17 21 22 23 22 24
27 27 26 25 25 24 23 22 21 20 18 18 17 14 13 13 12 13 13 9 11 10 9 8 8 10 20 17 15 19 24 17 14 20 20 22 24 26
25 25 25 25 25 25 24 23 23 22 20 19 19 18 16 14 16 15 15 21 20 13 15 14 18 25 26 24 19 19 21 24 23 21 16 20 21 22
25 24 25 26 26 25 25 23 23 24 22 20 21 20 18 18 17 17 17 16 16 16 17 22 25 25 23 21 18 18 19 20 22 24 25 25 23 21
27 26 26 26 27 26 26 25 24 24 24 22 21 21 21 19 20 19 18 18 20 20 21 21 22 23 22 22 21 21 21 20 21 21 22 25 26 26

GFSNE_sfc_dewp_081.txt.gz
Dewpoint
50 51 51 50 50 51 50 52 51 47 47 43 42 41 42 43 43 43 43 45 47 49 49 48 48 49 50 53 54 54 56 57 57 59 59 58 58 58
47 48 48 48 48 48 48 48 47 48 45 43 41 40 42 43 42 42 41 43 44 45 46 47 47 48 47 49 51 53 54 56 57 58 58 58 58 57
46 45 44 45 45 44 44 45 45 45 44 41 41 40 39 38 39 40 40 39 39 40 43 45 45 46 46 46 47 49 50 53 54 56 57 57 56 54
42 43 42 42 41 42 42 41 41 39 43 41 40 39 39 39 39 37 38 38 33 34 37 39 42 43 44 44 44 45 46 47 49 50 51 52 52 51
39 39 39 38 37 36 37 38 38 40 40 40 38 39 39 36 34 34 35 33 30 32 32 34 35 37 39 40 40 41 42 43 44 45 46 47 47 46
37 36 36 36 36 35 34 33 34 36 36 38 37 37 35 33 32 26 26 27 27 25 27 30 32 33 32 33 34 35 36 38 40 42 41 41 40 40
35 35 36 36 36 35 31 30 30 30 30 30 30 30 26 24 24 25 24 24 25 24 22 21 24 23 27 30 30 31 31 32 34 35 37 39 37 37
31 30 30 31 30 32 32 32 30 27 25 26 23 22 21 23 25 25 23 23 21 25 21 21 21 22 23 23 30 31 31 31 29 30 31 33 35 36
29 28 27 27 27 25 28 30 30 31 30 25 22 22 24 25 25 24 24 22 22 23 21 19 24 23 25 26 30 32 32 31 32 31 31 31 31 31
30 29 29 28 28 25 23 22 25 26 27 26 26 26 27 26 26 26 23 23 24 24 23 19 24 25 25 26 29 30 31 33 33 33 32 33 33 33
26 26 28 29 30 28 26 23 18 22 25 26 25 23 22 23 26 24 23 21 21 22 24 23 23 22 24 26 26 31 31 30 29 30 31 33 35 32
24 25 30 28 29 28 26 19 19 20 22 21 18 23 21 23 26 23 24 14 16 18 24 18 20 20 17 23 24 24 25 30 31 31 31 32 31 31
20 20 24 27 26 26 29 20 21 24 24 20 16 16 19 23 25 26 25 17 11 13 28 19 9 16 15 18 22 23 23 24 25 26 29 29 30 31
19 18 22 27 25 24 23 23 23 26 21 16 17 20 22 24 24 25 26 24 23 20 26 27 24 18 21 20 16 22 20 22 21 23 23 27 29 29
21 21 28 27 24 22 22 21 23 22 19 20 22 23 24 24 21 21 22 22 19 26 29 26 26 25 24 23 18 21 22 21 23 17 20 22 23 23
27 25 27 28 27 23 21 20 20 19 18 21 23 24 24 21 21 17 13 12 11 14 21 17 27 24 12 18 22 20 18 18 16 19 22 23 24 26
27 24 24 25 24 21 18 17 16 17 20 22 23 23 24 23 21 15 11 8 10 8 13 17 22 20 17 15 16 21 20 18 18 20 18 21 23 26
28 23 23 23 23 21 18 16 16 18 20 23 23 22 19 16 14 13 10 10 9 10 9 9 10 15 15 20 26 22 18 17 17 18 20 20 23 23
25 25 24 25 24 24 23 22 22 22 23 21 20 18 17 13 20 11 11 13 11 9 10 7 6 7 15 17 19 24 19 11 17 17 21 21 21 22
25 25 25 26 25 25 25 24 24 23 22 21 19 18 17 18 16 16 12 10 13 10 9 5 5 6 14 14 11 17 24 13 13 19 18 20 22 25
25 26 27 27 26 26 25 25 24 23 23 20 20 19 18 16 18 18 16 21 20 14 14 12 14 23 22 24 17 18 20 24 24 16 11 18 20 20
26 27 27 27 26 26 26 26 25 25 25 23 23 22 21 19 19 19 18 18 17 17 16 16 17 23 23 22 18 17 18 20 23 24 25 24 22 19
26 27 27 27 27 27 27 26 25 24 24 25 24 22 22 20 21 20 19 19 17 16 18 19 18 19 21 20 20 20 19 19 20 20 21 24 25 26

GFSNE_sfc_dewp_084.txt.gz
Dewpoint
48 48 48 51 51 51 51 50 51 47 48 44 42 41 41 42 43 42 42 46 47 47 48 48 48 49 49 50 51 53 55 57 57 57 58 59 59 59
46 46 46 48 48 48 48 48 48 49 45 44 41 41 43 42 42 41 41 42 43 45 46 46 47 48 46 47 49 50 52 55 57 57 59 59 58 58
44 43 44 45 45 43 43 45 44 46 45 41 41 41 39 39 39 40 39 38 36 41 42 43 45 46 46 45 45 47 49 51 53 55 58 58 58 56
42 43 43 42 42 42 42 42 42 42 44 40 40 39 39 39 39 36 37 34 31 34 35 37 40 41 42 43 43 44 45 46 47 50 52 53 54 54
38 40 40 39 39 39 39 40 39 40 41 40 38 39 39 36 34 32 30 29 27 30 33 34 35 35 36 38 39 39 40 43 45 45 45 47 48 48
37 36 37 36 36 35 34 34 36 37 37 39 38 37 36 33 29 26 25 26 24 23 26 28 31 34 34 33 32 33 35 38 40 42 42 42 42 43
36 35 35 36 36 34 31 30 32 32 33 31 30 31 27 25 24 25 23 24 24 23 21 22 22 22 25 28 31 32 32 33 34 36 38 40 40 40
33 31 31 31 31 32 32 32 30 28 28 29 24 25 22 24 24 25 24 23 22 24 21 20 23 24 25 27 31 33 32 33 32 32 33 34 34 36
30 27 27 27 27 26 30 32 32 32 28 24 22 22 23 25 26 25 24 23 22 23 21 18 25 24 25 26 31 33 33 33 33 32 32 32 31 31
27 27 27 26 26 24 22 25 25 26 27 26 26 26 26 26 26 26 24 24 24 24 23 19 24 24 25 26 32 31 31 31 32 34 34 34 34 33
25 26 29 29 29 29 24 22 21 24 26 28 27 27 28 28 27 25 24 21 22 23 24 23 22 22 23 25 26 29 31 32 31 32 31 31 33 35
25 27 31 29 30 29 25 19 18 20 23 21 20 23 22 24 26 23 24 16 18 21 24 19 20 19 16 22 24 24 25 28 29 30 31 31 32 30
22 22 25 30 28 27 29 20 21 24 24 19 16 16 20 23 25 26 25 19 15 16 27 19 8 15 13 17 22 23 22 23 23 26 27 29 30 30
19 19 22 28 27 25 27 26 25 27 21 17 17 20 21 24 25 26 26 26 24 21 24 19 13 14 20 17 15 21 19 20 20 22 22 27 28 28
21 21 24 28 27 24 24 23 24 24 19 19 21 23 23 24 24 24 26 25 19 23 27 27 26 25 24 22 19 20 19 20 21 15 18 21 21 22
26 25 26 28 28 24 22 23 22 21 19 21 22 24 25 24 25 25 22 16 14 18 21 14 16 23 16 16 14 19 15 15 15 16 20 21 23 24
28 24 25 25 25 24 22 20 18 18 21 21 23 24 26 26 25 22 19 11 12 9 13 18 22 21 19 15 17 19 19 16 17 18 17 16 21 23
29 24 23 23 24 23 21 18 17 18 20 23 24 24 24 24 21 17 14 12 14 13 9 10 11 15 17 21 25 22 20 15 15 17 18 16 19 21
27 26 24 23 23 24 24 23 21 21 24 24 23 22 22 20 23 18 14 16 14 12 11 8 6 8 9 16 19 26 18 11 13 16 19 18 19 21
26 26 25 25 25 24 24 24 24 23 22 22 21 20 20 20 18 17 14 13 14 13 11 5 5 6 12 13 12 18 24 12 13 17 14 19 21 25
25 25 25 25 26 26 26 25 24 24 22 21 23 21 21 20 20 19 16 20 19 16 17 15 14 22 14 18 18 19 21 24 23 14 11 19 20 20
26 25 26 27 28 28 27 26 26 26 26 25 23 23 22 19 19 20 18 18 18 18 18 19 15 10 12 19 18 18 18 20 22 23 24 24 21 19
29 27 28 28 29 30 29 28 27 26 25 25 24 24 24 21 21 21 21 20 19 18 18 18 18 19 21 20 20 19 18 18 19 19 21 24 25 26

GFSNE_sfc_dewp_087.txt.gz
Dewpoint
47 48 47 48 48 49 51 51 51 46 48 43 42 42 43 43 43 42 42 46 46 47 47 48 48 48 47 49 50 51 53 55 56 57 57 58 60 60
46 45 45 46 46 46 48 48 49 49 47 44 41 42 43 42 43 41 41 41 42 44 46 46 47 47 46 46 47 48 51 52 54 57 57 57 59 59
43 43 43 43 44 45 45 45 45 46 45 41 41 41 39 40 40 40 39 36 35 40 41 42 44 44 45 44 44 46 48 49 52 54 58 58 59 58
41 42 42 42 42 41 42 43 42 42 44 41 40 39 39 39 39 37 37 31 30 36 37 37 38 40 41 41 41 43 44 47 47 49 52 54 57 56
38 39 40 40 40 39 40 40 40 41 42 41 38 39 39 36 34 33 28 28 25 29 33 35 35 36 37 35 35 37 40 42 44 45 46 48 50 52
36 36 37 38 37 37 36 36 37 38 39 40 38 37 36 33 28 28 26 26 24 22 25 29 30 35 33 33 34 34 35 37 40 42 43 43 44 45
37 36 36 37 37 35 33 31 33 33 34 36 35 33 29 26 25 25 23 24 24 24 21 23 22 24 28 31 33 34 34 34 36 38 39 40 41 41
34 33 32 32 33 34 32 32 30 30 31 30 27 30 24 24 24 24 25 22 22 24 21 21 24 24 25 28 33 35 32 34 34 33 34 35 36 37
33 30 27 27 27 28 32 34 33 32 28 26 25 23 23 25 26 25 24 23 22 24 22 18 25 24 25 26 32 33 34 35 35 34 34 34 33 33
31 27 26 25 24 23 23 27 25 26 27 26 25 25 26 27 27 26 25 24 24 24 24 20 24 23 24 26 33 33 32 32 32 33 34 35 36 34
28 28 28 27 30 28 23 24 24 24 27 29 29 30 30 29 28 26 25 23 22 22 24 23 23 22 23 25 25 31 32 33 32 32 33 34 34 34
24 25 32 30 31 30 26 19 19 21 24 23 24 23 24 25 28 23 25 18 18 21 25 20 21 21 18 23 24 24 23 28 28 30 31 31 31 29
23 24 28 32 31 29 29 20 19 22 24 19 16 18 21 25 25 26 24 20 16 17 27 20 12 18 16 18 22 23 22 22 23 24 27 29 30 30
19 20 22 30 29 27 28 27 25 26 22 18 17 19 22 24 26 26 26 26 25 23 26 20 16 16 14 13 17 21 19 19 20 22 21 25 25 26
20 22 24 27 29 27 27 25 26 24 21 20 21 23 24 24 25 25 27 26 25 26 28 23 21 19 22 18 13 15 18 19 18 13 18 20 20 22
27 26 25 27 29 26 24 23 22 24 21 21 22 23 24 22 23 26 24 24 23 23 24 19 16 17 16 17 16 16 15 14 15 15 18 20 21 23
28 24 25 26 26 25 23 21 20 20 22 20 22 22 24 25 25 24 21 19 19 17 18 21 23 21 20 17 13 19 19 16 17 18 17 14 19 21
32 25 23 24 24 24 23 22 20 21 19 22 22 23 23 23 21 19 17 18 17 16 15 16 16 17 18 22 24 19 20 20 14 16 18 18 18 20
30 28 26 24 23 24 23 23 21 21 21 22 22 21 21 22 23 20 18 18 16 13 11 8 7 10 10 14 20 26 21 12 13 16 18 18 18 21
26 27 27 26 25 24 24 24 24 23 21 22 21 21 20 19 16 20 19 19 20 18 15 6 6 8 11 11 13 19 25 13 13 13 12 19 21 25
27 26 27 26 26 25 26 26 25 24 23 22 22 20 20 18 19 21 21 22 20 18 17 18 16 21 9 13 17 19 21 24 22 14 7 16 20 20
25 25 26 26 26 26 26 25 25 26 26 24 23 23 23 22 21 21 20 19 19 21 21 22 19 11 8 14 16 17 19 21 22 23 24 23 18 17
30 27 27 27 27 28 28 28 29 28 27 26 25 24 23 22 22 22 21 21 20 20 19 19 20 19 17 18 19 18 18 19 20 19 21 24 25 25

GFSNE_sfc_dewp_093.txt.gz
Dewpoint
49 50 51 50 50 50 51 49 46 42 44 47 45 45 45 44 44 43 44 45 46 46 47 48 48 47 47 47 48 49 51 52 53 55 56 57 58 59
47 47 48 48 48 48 49 49 49 47 44 46 44 44 44 43 43 41 42 41 44 44 44 45 45 45 45 44 45 47 48 50 52 55 59 57 58 58
44 45 46 45 45 45 46 46 47 48 46 43 42 42 42 42 41 40 37 37 38 40 41 42 42 43 42 40 42 44 46 48 50 53 57 57 57 58
42 44 44 43 44 43 43 43 44 45 45 44 41 41 40 41 40 38 30 27 32 38 39 39 38 39 37 38 38 41 43 46 47 50 52 56 59 60
40 41 41 41 41 41 41 41 42 42 43 44 41 40 39 38 36 34 31 28 23 29 32 35 38 36 35 36 37 37 40 43 45 47 48 50 53 57
39 39 39 39 39 40 39 39 39 40 41 42 40 39 38 35 33 32 29 27 26 22 24 29 31 33 35 36 36 35 37 40 42 44 45 46 47 50
38 37 37 38 37 38 36 36 35 37 38 40 38 36 34 32 31 29 30 27 26 25 22 24 25 27 31 34 34 34 35 36 39 40 42 43 44 45
37 35 35 34 36 34 33 33 32 34 35 36 36 35 32 30 28 27 27 24 23 26 22 23 25 25 27 33 34 34 35 34 35 37 38 39 39 40
37 35 30 29 31 33 34 31 30 32 31 33 34 33 31 30 29 28 28 26 22 24 23 19 24 24 26 29 32 33 34 35 36 37 37 35 36 36
36 34 29 26 25 27 26 25 24 27 27 24 27 28 27 28 28 30 28 25 25 25 24 24 23 22 25 28 32 33 32 33 34 35 35 36 37 37
32 29 27 25 26 29 24 24 24 26 29 32 31 31 31 30 28 26 26 26 23 22 25 25 24 23 24 27 25 32 31 31 31 32 32 33 34 33
30 28 32 27 31 32 23 21 20 24 25 26 24 27 28 30 28 24 28 28 26 25 26 26 24 24 26 26 26 26 25 27 29 29 30 31 32 30
28 26 25 33 33 33 30 21 19 21 26 22 21 20 25 25 25 25 25 29 27 27 27 26 26 24 24 24 24 25 25 23 23 23 29 28 28 29
23 22 24 31 34 33 32 30 26 25 23 19 17 18 21 25 27 27 26 27 27 29 30 28 27 26 26 24 22 24 25 25 26 25 25 26 25 26
20 22 26 29 32 33 31 32 29 25 23 21 21 23 25 28 30 29 28 27 27 29 29 27 28 26 26 25 23 23 24 25 26 26 25 25 25 24
29 28 27 27 28 29 29 29 26 27 24 23 22 23 26 26 27 28 27 27 26 26 28 27 27 27 26 25 24 23 23 24 25 25 25 25 24 24
29 26 25 25 25 27 25 24 24 25 27 23 23 23 23 25 25 27 27 25 25 24 24 25 26 26 26 26 24 23 23 23 25 25 24 24 24 25
29 25 24 24 24 25 26 24 22 23 23 26 24 23 24 25 26 27 26 26 25 24 24 25 25 24 24 24 26 24 23 23 24 24 24 23 23 24
31 30 28 27 26 27 27 27 27 26 27 26 26 25 24 25 26 25 25 25 24 24 24 23 23 23 21 17 20 27 24 24 23 23 24 24 23 24
32 32 31 30 29 28 28 28 28 27 25 26 25 25 25 25 24 25 25 23 23 23 23 22 22 22 22 20 21 23 27 26 24 24 24 23 23 24
30 30 31 31 30 30 29 29 29 28 27 26 26 25 24 25 24 24 24 23 23 22 22 22 24 24 23 22 19 19 22 25 26 25 24 22 22 21
30 29 30 31 31 30 30 29 28 28 28 26 26 26 26 25 24 23 22 22 23 23 23 24 22 22 21 20 20 20 20 21 23 27 27 25 24 21
31 32 31 31 31 31 30 29 29 29 28 28 28 27 26 25 24 23 23 22 22 22 24 23 22 21 21 21 21 21 20 21 21 22 23 24 25 27

GFSNE_sfc_dewp_096.txt.gz
Dewpoint
50 50 50 51 51 52 51 51 48 43 42 46 48 47 46 46 45 44 44 47 47 47 47 48 48 47 46 46 47 48 49 50 52 53 55 57 57 57
47 48 48 49 50 50 50 50 49 47 44 47 47 47 46 43 43 42 41 42 44 44 44 45 45 45 44 43 45 46 47 48 51 53 56 58 58 58
45 46 47 47 47 47 47 47 47 47 46 46 45 44 44 43 41 39 38 38 40 41 41 41 42 41 40 40 41 43 44 46 49 52 54 58 57 58
43 44 45 44 45 45 44 44 44 46 46 45 43 42 42 42 41 37 31 30 37 39 38 39 39 38 37 37 38 39 42 44 47 49 51 55 58 59
42 43 44 44 44 43 43 42 43 43 44 44 44 42 41 39 37 36 31 28 25 30 31 37 38 36 36 36 37 37 39 42 45 47 48 50 53 58
41 41 41 41 41 42 42 42 41 41 42 42 43 41 39 36 36 34 31 29 28 22 26 29 31 32 34 36 36 35 37 40 42 44 46 47 49 51
40 39 40 40 38 39 39 40 39 38 39 41 40 38 36 33 34 33 33 31 29 27 24 25 25 26 30 33 34 36 36 37 39 41 42 44 45 47
40 39 38 37 38 36 34 33 34 37 38 39 39 37 35 34 30 31 34 32 30 27 24 24 25 25 28 33 34 35 36 36 37 38 38 40 41 43
40 39 35 32 34 35 36 32 31 32 32 36 36 36 34 32 34 34 31 29 25 27 24 21 24 23 28 31 33 33 34 36 36 37 38 38 38 38
40 38 34 30 29 31 27 27 24 26 27 24 29 34 34 33 33 34 32 27 25 25 25 26 23 22 26 31 33 34 34 35 34 35 35 36 38 38
37 35 33 28 27 30 25 26 23 25 31 32 31 30 30 29 28 27 27 26 24 23 26 25 24 23 25 27 27 32 32 32 32 33 33 34 34 33
34 32 33 28 30 32 26 24 21 23 25 29 30 31 30 31 28 26 29 33 28 26 26 29 26 26 29 27 28 28 27 27 30 30 31 32 32 30
34 31 30 35 32 34 32 22 20 22 25 23 19 22 26 27 24 24 26 33 32 31 27 30 30 27 28 27 26 27 27 25 24 24 30 29 28 30
32 32 30 32 34 34 34 30 25 24 23 21 20 20 22 25 28 28 28 29 29 32 30 32 31 30 29 28 25 26 27 27 27 26 27 27 26 24
24 24 25 29 33 34 34 34 31 26 22 22 22 25 27 31 33 31 31 31 32 32 32 31 32 30 29 28 27 25 26 28 29 29 27 26 27 26
29 26 26 27 29 31 32 32 29 27 24 24 24 26 28 29 29 31 30 30 30 29 31 31 31 30 29 27 26 26 26 27 28 28 28 27 26 25
32 29 27 25 23 24 27 27 28 27 27 26 26 25 24 26 27 30 31 30 29 28 28 28 28 29 29 28 27 26 25 26 28 28 26 26 26 27
30 27 26 25 23 22 24 25 25 26 27 29 28 27 27 28 29 29 30 29 28 28 27 28 28 27 26 26 29 26 26 26 27 28 27 26 27 28
32 29 29 28 26 26 26 28 29 27 31 31 31 30 30 29 28 28 28 28 27 28 28 28 27 26 24 22 23 28 27 27 26 25 26 26 26 27
34 32 31 30 29 29 30 31 31 31 31 30 30 30 30 30 28 28 28 27 26 27 27 27 26 26 25 24 25 25 28 28 27 27 27 26 26 26
35 33 33 32 32 33 33 33 33 32 31 31 30 30 30 30 28 28 28 26 26 25 25 25 27 26 28 26 23 20 22 26 27 28 28 26 24 23
33 33 33 33 34 34 34 34 33 32 32 31 30 30 30 29 28 27 26 27 26 27 26 29 28 27 25 24 22 22 21 23 24 26 27 26 26 24
33 32 34 34 35 34 34 33 32 32 32 32 31 30 30 29 28 27 27 25 26 26 26 25 26 26 25 24 23 23 22 23 23 23 24 26 27 28

GFSNE_sfc_dewp_102.txt.gz
Dewpoint
52 52 50 51 51 51 51 50 47 43 43 46 46 45 46 46 45 45 45 47 47 48 47 47 46 46 45 45 45 45 46 48 49 50 51 53 54 56
50 50 50 50 50 50 49 50 49 47 44 46 46 45 45 44 44 43 43 44 44 45 45 44 44 42 42 42 42 42 43 45 47 49 52 53 56 58
47 48 48 49 49 49 48 49 49 48 46 45 43 44 45 42 41 40 39 40 42 42 42 42 41 40 39 38 38 38 41 44 46 48 51 52 55 58
45 46 46 47 47 47 47 46 45 45 46 45 44 42 43 43 41 37 32 33 40 41 41 40 39 38 37 37 37 37 38 42 44 46 50 51 54 58
45 44 44 45 45 45 45 44 43 43 44 44 43 43 42 40 39 36 32 30 29 36 34 36 38 36 35 36 38 38 38 41 42 45 47 49 52 58
44 44 44 45 44 44 43 42 42 41 41 41 41 42 40 39 38 36 34 32 29 24 30 31 30 28 32 34 36 38 37 40 41 43 46 47 48 53
43 43 43 42 42 43 42 42 41 40 40 40 39 40 37 35 36 36 35 33 31 31 29 26 26 27 30 35 35 36 38 39 40 42 43 45 46 49
41 41 40 40 40 40 40 38 39 40 39 38 38 37 37 36 35 34 34 32 32 29 26 25 26 26 30 33 35 35 35 36 38 40 42 41 43 46
40 40 38 38 39 37 38 37 36 35 35 37 37 37 35 36 34 33 33 33 29 27 25 23 25 25 29 33 35 35 35 35 36 37 39 41 40 43
39 39 38 36 36 36 35 31 28 27 28 28 33 35 36 36 35 35 34 27 25 24 25 22 23 23 28 30 34 33 34 34 35 35 36 36 39 40
40 39 38 34 37 38 34 30 25 27 31 30 32 34 35 38 34 31 26 24 23 24 25 25 23 24 24 27 30 33 32 33 32 34 35 35 35 38
39 39 41 34 37 38 31 28 24 25 30 30 30 30 31 31 31 29 27 23 22 21 25 24 23 23 20 27 27 28 28 27 28 31 33 33 34 33
38 37 36 39 37 37 34 28 26 26 31 29 28 28 28 24 23 26 29 30 21 20 27 25 17 21 22 23 25 27 27 27 26 26 31 30 30 31
37 36 34 38 38 36 36 32 30 30 26 24 22 24 26 24 24 26 27 27 28 25 27 28 17 19 15 18 22 24 24 26 26 27 27 28 29 27
37 37 37 37 38 36 36 35 29 25 25 24 24 24 24 25 25 24 25 27 24 26 27 21 17 15 15 14 18 22 21 24 24 22 24 25 25 26
38 37 37 37 38 35 34 35 29 26 24 24 24 26 27 27 22 21 18 20 21 26 27 19 16 16 15 17 17 18 19 18 20 21 23 24 26 26
34 30 30 30 31 33 32 31 31 28 27 25 25 26 27 26 26 22 21 23 22 23 26 25 26 23 20 17 15 19 20 20 20 20 21 20 23 25
33 31 30 29 27 29 30 32 32 32 28 27 26 27 26 25 25 23 23 22 24 25 23 21 19 18 19 23 25 18 19 20 20 22 22 15 18 24
34 32 31 30 29 27 28 31 30 30 28 28 27 26 25 25 27 27 25 24 25 25 25 24 19 15 11 14 23 28 17 18 20 21 21 20 16 23
36 33 32 31 29 26 27 28 29 28 28 29 28 28 27 26 25 26 27 25 23 26 26 24 18 16 17 16 15 20 29 18 18 17 18 23 25 29
35 33 33 32 32 31 29 29 29 28 28 29 28 28 27 27 26 27 27 27 26 25 25 26 25 28 18 15 16 20 23 30 25 18 15 17 19 22
34 33 32 32 33 33 32 31 30 30 29 28 28 28 28 27 26 26 26 26 27 26 25 24 24 21 13 19 14 14 20 24 28 28 28 25 18 16
33 33 33 33 34 34 33 32 31 30 30 30 29 28 28 27 27 27 27 27 26 26 25 24 24 20 20 19 16 15 16 18 21 22 24 28 28 28

GFSNE_sfc_dewp_105.txt.gz
Dewpoint
54 53 52 52 51 51 51 50 47 43 44 46 45 45 45 44 45 45 45 47 48 48 47 46 46 45 44 44 44 44 44 46 48 49 51 52 53 54
53 52 50 50 50 51 50 50 49 46 43 46 44 44 44 44 45 43 43 44 45 45 45 44 43 42 41 40 39 39 41 43 46 48 50 52 52 54
51 51 50 49 49 49 49 48 48 47 44 43 43 43 43 42 41 40 40 41 42 43 42 42 41 39 38 38 38 38 38 42 44 46 49 52 53 55
49 49 48 48 48 49 48 47 46 46 45 43 44 42 43 43 41 38 34 34 41 42 41 40 39 38 37 36 38 39 38 41 42 44 47 50 52 57
47 46 46 47 47 46 46 45 45 45 44 43 42 43 42 41 39 37 32 32 32 38 37 36 38 35 33 35 37 38 38 40 41 43 47 48 50 56
47 46 46 46 46 44 44 43 42 41 41 41 41 42 40 39 39 37 34 33 31 25 30 32 31 28 32 35 36 38 38 39 41 43 45 46 48 52
47 47 47 46 46 46 43 42 41 40 39 37 38 40 38 36 36 36 36 35 33 32 29 27 27 27 31 35 36 36 36 37 39 42 43 45 46 49
43 44 44 44 44 45 44 44 42 39 38 38 38 38 38 37 36 35 35 33 32 30 26 25 25 25 29 32 34 35 35 36 36 38 42 43 45 47
42 42 41 40 41 40 42 41 40 41 41 38 38 38 37 37 36 34 34 33 32 28 25 23 25 25 29 33 34 33 34 34 36 36 38 41 43 45
41 41 39 38 39 37 36 34 33 33 34 34 36 38 38 37 36 35 34 30 25 25 25 21 23 24 27 30 33 32 34 34 34 35 36 37 41 43
40 40 39 37 39 40 35 31 28 26 31 32 32 33 36 40 37 33 28 25 23 23 24 24 23 23 25 27 29 33 31 32 31 34 35 36 37 39
40 40 42 37 40 41 35 31 27 25 30 30 30 31 32 37 38 32 28 23 22 21 25 23 22 23 19 26 27 27 28 29 28 32 33 34 35 32
39 39 39 42 40 40 39 31 29 26 31 29 29 28 28 25 24 28 27 23 18 18 26 23 14 20 20 22 24 25 26 27 25 26 30 31 30 32
38 39 38 41 41 40 39 34 33 30 30 29 28 27 27 25 25 26 28 28 26 24 27 21 15 16 13 15 20 23 23 24 25 27 27 29 30 29
40 39 39 41 42 39 39 38 34 29 27 26 25 25 25 25 25 26 26 25 23 26 28 27 17 12 13 12 17 19 19 22 23 22 25 26 25 26
41 39 39 40 40 39 38 38 32 27 26 26 25 25 26 25 24 23 17 17 20 25 26 19 18 19 16 16 17 16 18 17 20 21 24 25 26 26
39 35 36 36 35 35 34 35 32 29 28 27 26 26 27 27 26 22 19 17 16 22 20 26 27 26 23 21 16 17 19 19 18 19 21 19 23 24
35 34 33 33 33 33 32 32 32 32 28 26 26 27 26 26 25 24 19 18 18 19 20 23 24 23 23 24 25 17 18 18 18 21 21 14 17 23
36 35 33 32 32 32 32 32 32 32 31 29 27 27 26 25 27 27 25 21 23 22 20 21 19 21 20 18 24 28 17 17 18 20 21 19 15 22
37 34 33 32 32 31 31 32 32 32 31 29 28 27 26 25 25 26 25 25 24 24 23 21 19 19 20 21 21 20 28 17 18 17 16 22 24 28
35 34 34 32 32 32 31 32 32 32 31 30 28 28 27 26 25 26 25 27 26 24 25 26 25 27 20 22 19 20 23 29 24 17 13 15 18 21
34 33 32 32 32 32 32 31 31 31 30 29 29 28 28 27 26 26 26 26 26 25 25 23 24 24 20 24 22 18 21 24 29 29 27 23 16 12
32 32 32 32 32 32 32 32 31 31 31 30 29 29 28 27 27 26 26 26 26 26 26 24 24 24 25 24 22 19 19 19 21 22 24 29 29 28

GFSNE_sfc_dewp_108.txt.gz
Dewpoint
57 56 54 53 52 52 51 50 47 43 45 45 45 44 45 45 46 45 44 47 48 49 47 47 46 44 44 43 42 42 43 44 44 46 49 50 52 52
56 55 54 51 51 51 51 50 48 45 42 45 44 44 45 44 45 43 43 45 46 46 46 44 43 42 41 40 40 40 40 40 44 44 47 49 52 52
55 54 53 50 50 49 49 48 48 47 45 43 43 43 42 42 42 40 40 41 43 44 43 43 41 39 39 38 38 40 40 39 42 43 47 49 52 53
55 54 53 51 49 49 49 48 47 47 45 43 42 42 43 41 41 39 36 36 41 42 42 41 40 38 37 36 37 38 39 40 41 42 45 48 51 53
54 53 53 50 49 48 47 47 46 46 45 42 41 42 42 42 39 37 34 32 35 39 40 38 40 37 33 34 37 38 39 39 40 42 44 47 49 52
50 50 50 49 49 48 47 46 44 43 41 41 40 41 40 40 39 38 36 34 33 28 34 31 34 30 32 36 36 37 37 38 39 40 43 46 48 50
48 48 48 47 48 48 47 45 44 42 40 39 38 41 39 37 37 37 37 36 34 33 29 29 28 28 30 34 36 37 36 36 37 38 42 45 47 48
46 46 46 46 46 48 48 46 44 42 40 39 36 38 38 37 37 36 34 34 34 32 30 27 25 25 27 31 36 34 34 35 36 37 39 43 45 46
43 43 43 43 44 45 47 46 45 45 43 40 37 37 37 38 37 35 35 34 34 29 27 25 25 24 28 32 35 33 33 34 35 36 38 41 44 45
41 42 42 40 41 41 41 39 39 40 41 40 38 38 39 39 38 37 35 33 27 27 25 23 24 23 26 29 35 32 34 33 34 35 37 38 41 42
40 41 41 40 41 43 38 37 35 33 33 37 37 39 40 41 38 34 32 31 28 25 25 23 23 23 25 27 29 34 31 30 31 35 35 36 36 38
40 40 42 40 41 43 38 35 33 30 30 29 31 32 36 38 40 35 32 32 24 24 25 24 22 22 18 25 26 27 28 29 30 33 33 33 35 31
39 40 40 43 42 42 41 35 34 28 30 29 28 29 29 30 32 30 30 30 24 21 26 23 14 19 18 21 23 24 26 26 25 26 29 32 31 32
40 39 40 42 43 42 42 39 37 33 30 28 28 28 27 26 26 27 28 28 27 26 28 21 18 17 13 14 20 23 21 22 23 26 26 28 29 30
43 41 41 41 43 43 42 42 39 32 30 29 27 28 27 26 26 27 27 26 26 29 29 24 18 9 12 12 17 19 21 25 24 22 24 24 24 24
42 42 41 41 42 41 40 41 37 33 31 31 29 28 27 26 27 26 26 23 25 26 26 24 13 17 14 16 16 18 21 20 23 23 24 23 25 25
40 37 37 36 36 36 36 36 36 32 31 31 29 27 27 27 27 24 22 20 16 21 21 25 25 23 20 20 18 21 23 22 21 20 21 19 23 24
39 37 36 36 36 35 34 33 33 33 32 30 30 28 27 27 26 22 22 20 17 20 20 21 19 19 20 24 25 22 22 21 18 21 20 13 16 22
37 37 35 35 35 35 34 33 32 32 32 31 30 29 28 27 26 25 23 21 21 21 20 16 14 13 15 17 25 28 23 20 19 20 20 19 15 21
37 36 35 36 34 34 33 33 33 32 31 31 30 29 28 27 27 26 25 25 23 22 20 17 16 15 17 19 22 25 27 22 22 19 17 22 24 27
34 35 35 34 33 33 33 32 33 32 32 31 30 29 28 26 26 26 26 27 26 24 23 24 25 25 19 23 23 21 24 28 25 20 14 16 19 21
32 33 34 34 33 32 32 32 32 32 32 32 31 29 28 27 26 26 25 25 26 24 23 21 23 23 22 24 21 17 22 24 29 28 26 24 17 12
32 32 33 33 33 33 32 32 32 32 32 31 31 30 29 27 27 26 26 25 26 25 24 24 25 26 25 25 23 21 22 22 24 25 27 30 29 27

GFSNE_sfc_dewp_111.txt.gz
Dewpoint
58 58 57 57 55 55 54 53 51 47 47 47 47 46 46 46 47 45 45 48 48 49 48 47 46 45 44 43 42 42 42 42 41 44 45 46 49 51
58 58 57 56 54 53 52 51 50 49 46 46 46 45 45 45 46 44 44 46 46 47 47 46 44 42 41 40 40 41 42 41 40 43 44 46 49 51
58 56 56 56 54 52 52 51 51 49 46 44 44 44 44 43 43 42 42 42 43 45 46 44 43 40 39 38 38 40 41 40 41 43 44 47 49 51
57 56 55 54 54 53 51 50 50 49 47 44 43 43 43 42 40 39 38 39 41 44 44 43 42 40 38 36 37 38 39 40 40 41 43 46 49 51
55 55 55 54 52 51 50 50 49 47 46 44 42 43 43 42 40 39 36 34 37 42 43 41 41 40 35 34 37 37 38 38 39 39 41 45 48 50
51 51 52 51 51 49 49 48 46 45 44 44 42 42 41 41 40 39 37 34 34 32 38 35 36 36 32 36 36 37 37 37 37 38 40 44 46 48
48 49 49 49 48 49 48 47 46 45 43 42 41 41 39 37 38 39 37 36 35 34 30 31 30 28 29 33 34 36 36 36 36 37 39 43 46 47
45 45 46 46 47 49 49 48 47 45 43 42 40 41 41 39 37 36 36 35 34 34 31 28 26 26 27 30 35 34 33 35 36 36 38 42 44 46
41 43 43 44 45 45 48 48 48 48 46 43 42 41 40 39 37 34 35 35 35 31 29 28 25 25 26 31 35 33 32 33 35 36 37 39 42 44
40 40 41 42 42 43 43 43 44 44 45 43 43 41 41 39 39 37 36 34 28 28 27 26 24 24 26 30 35 33 33 33 33 35 36 37 38 41
40 40 41 40 42 44 41 39 38 38 37 41 41 41 41 42 39 36 33 33 30 27 26 24 23 23 25 27 29 34 32 29 31 34 35 36 35 37
41 40 42 42 42 43 42 39 35 37 35 33 34 36 39 40 41 37 35 34 30 29 26 25 23 23 20 24 27 28 28 29 30 32 33 34 35 29
41 41 40 42 44 44 44 40 39 37 36 31 29 29 30 33 36 32 33 35 31 31 27 23 16 21 20 23 25 25 26 26 25 26 29 31 34 32
39 40 42 42 42 44 43 43 41 38 32 29 28 28 29 29 30 30 29 29 29 31 29 24 20 21 20 18 21 24 21 22 23 25 25 27 29 32
39 39 41 43 42 43 44 43 42 36 31 30 28 28 29 29 26 26 27 28 29 30 28 23 22 17 18 16 20 21 20 22 21 19 23 25 25 26
36 37 39 41 42 42 42 42 40 34 32 32 32 31 28 27 27 28 27 26 26 26 27 26 21 22 16 17 18 17 17 17 19 20 23 24 26 25
35 35 37 37 37 37 36 37 35 35 33 32 30 29 28 28 27 26 24 24 24 24 24 26 25 24 22 21 17 18 19 20 20 22 22 20 23 25
34 35 35 36 36 36 35 35 35 34 33 32 30 30 28 28 27 25 25 25 23 21 22 24 24 21 21 23 24 20 18 21 23 24 23 17 17 23
31 32 34 35 36 36 36 35 34 33 33 32 31 30 29 29 28 25 24 24 22 21 18 20 19 17 15 16 24 26 17 21 23 24 24 22 18 22
28 30 31 34 35 35 35 34 33 32 32 31 31 30 29 28 27 26 25 24 21 20 19 17 20 17 19 18 19 22 26 21 22 23 23 24 24 27
28 29 30 32 34 35 35 34 34 32 32 31 30 30 29 28 27 26 26 27 23 21 21 22 22 23 15 21 21 21 26 26 25 21 17 20 20 22
25 28 29 32 33 34 34 33 32 33 32 32 31 30 29 29 27 26 26 25 25 23 24 23 22 20 21 23 20 15 21 26 28 27 25 23 19 14
27 28 30 31 32 33 33 32 32 32 32 32 31 30 29 28 28 27 26 25 25 24 23 24 25 24 24 24 20 19 20 22 23 27 28 29 27 26

GFSNE_sfc_dewp_114.txt.gz
Dewpoint
58 58 57 58 56 56 56 55 54 50 48 50 49 48 49 49 49 48 46 50 51 51 52 51 49 47 45 42 41 41 42 43 42 43 45 45 45 48
58 58 58 58 58 57 56 54 54 53 49 50 48 47 47 47 48 46 46 48 50 50 49 48 47 45 43 41 40 40 41 42 42 43 44 44 46 49
58 58 57 57 56 55 54 54 53 52 50 48 46 46 45 46 45 44 44 44 45 49 48 47 45 43 41 39 38 39 39 40 40 41 43 44 47 49
56 57 56 56 56 56 54 53 52 52 51 49 44 43 44 45 44 42 41 41 42 45 47 46 45 43 41 37 36 37 37 39 39 40 41 43 47 49
52 53 53 54 54 53 52 52 51 50 50 46 43 43 43 43 41 40 38 36 38 42 45 44 44 43 40 36 36 36 36 37 38 39 39 42 46 49
47 49 50 50 51 51 50 50 49 47 46 45 43 42 42 42 42 40 39 37 35 35 41 41 41 42 39 35 37 35 36 36 36 38 38 41 45 48
44 45 46 47 47 49 49 49 47 47 45 45 42 41 40 38 40 40 41 39 36 36 33 34 34 31 31 35 34 36 35 35 36 37 37 41 44 46
41 42 43 44 45 47 49 49 48 47 44 44 43 42 41 40 40 39 39 36 35 37 33 31 29 28 27 29 32 36 33 34 35 36 36 39 42 45
39 40 41 42 43 43 45 48 49 48 48 45 44 43 43 40 40 37 37 36 36 33 32 31 26 26 27 28 36 36 33 33 34 35 36 38 39 43
39 40 41 41 41 42 42 42 44 46 47 47 45 45 44 42 41 39 38 34 31 30 31 31 25 26 26 30 36 36 33 33 32 34 35 36 36 40
39 40 41 41 42 43 42 40 40 42 43 46 45 45 44 44 42 37 34 34 32 29 28 28 24 24 24 27 30 36 34 30 31 34 35 35 34 35
37 38 41 42 43 44 43 41 39 39 38 37 38 40 42 42 42 38 35 35 32 30 28 28 24 23 20 24 27 29 30 30 30 30 32 35 34 28
33 36 37 40 42 43 44 43 41 41 39 37 36 35 35 37 40 37 37 37 33 33 29 27 24 21 18 22 24 26 27 27 25 25 29 31 35 32
31 32 35 38 40 41 42 43 44 44 35 34 33 32 32 33 33 34 34 32 32 34 30 25 19 19 16 16 23 25 24 24 24 26 25 27 29 34
29 31 34 35 37 38 40 42 43 41 33 32 31 32 31 32 32 30 30 30 30 31 31 28 24 16 19 19 22 24 24 24 24 20 23 24 24 25
31 32 32 34 36 38 39 40 40 37 34 34 32 31 30 29 29 29 28 28 28 27 28 26 25 22 21 22 22 22 21 20 21 21 22 23 25 25
31 31 30 31 32 34 36 37 38 35 35 33 32 29 29 29 28 28 27 26 26 25 25 26 25 26 26 24 22 22 21 21 19 20 20 20 23 25
29 28 29 29 31 33 35 36 35 36 34 33 32 30 29 28 27 27 26 26 25 24 24 25 25 24 23 24 24 22 22 22 21 22 21 16 20 25
27 27 28 28 29 31 34 35 35 34 34 33 32 31 30 29 28 26 26 26 24 24 24 24 23 21 19 19 24 25 22 21 23 22 22 21 20 25
25 26 26 27 29 30 32 34 35 34 32 32 32 31 30 29 28 26 26 25 24 23 21 21 23 20 21 20 23 24 24 22 22 22 20 24 25 27
25 25 26 27 27 29 30 32 34 33 33 32 31 30 30 29 28 27 26 27 26 24 21 21 23 24 14 20 23 24 27 25 24 21 21 22 21 22
24 24 26 27 27 29 30 31 32 33 32 32 32 30 30 29 28 27 27 27 26 24 24 24 20 18 15 19 19 21 25 26 27 26 25 24 21 16
23 26 25 26 27 29 30 30 31 32 32 32 32 31 30 29 29 28 28 28 27 24 24 23 22 19 21 20 18 20 22 24 26 26 26 27 26 28